Time,TemperatureF,DewpointF,PressureIn,WindDirection,WindDirectionDegrees,WindSpeedMPH,WindSpeedGustMPH,Humidity,HourlyPrecipIn,Conditions,Clouds,dailyrainin,SolarRadiationWatts/m^2,SoftwareType,DateUTC
2013-04-14 00:01:00,66.4,47.2,29.75,SE,140,5.0,5.0,50,0.00,,,0.00,0,Wunderground v.1.15,2013-04-14 05:01:00,
2013-04-14 00:04:00,66.3,47.1,29.75,SE,142,5.0,8.0,50,0.00,,,0.00,0,Wunderground v.1.15,2013-04-14 05:04:00,
2013-04-14 00:06:00,66.3,47.6,29.75,SE,146,5.0,8.0,51,0.00,,,0.00,0,Wunderground v.1.15,2013-04-14 05:06:00,
2013-04-14 00:08:00,66.2,47.5,29.75,SE,136,5.0,8.0,51,0.00,,,0.00,0,Wunderground v.1.15,2013-04-14 05:08:00,
2013-04-14 00:12:00,66.1,47.4,29.75,SE,144,5.0,6.0,51,0.00,,,0.00,0,Wunderground v.1.15,2013-04-14 05:12:00,
2013-04-14 00:13:00,66.1,47.4,29.75,SE,130,5.0,6.0,51,0.00,,,0.00,0,Wunderground v.1.15,2013-04-14 05:13:00,
2013-04-14 00:15:00,66.1,47.4,29.75,SE,141,5.0,8.0,51,0.00,,,0.00,0,Wunderground v.1.15,2013-04-14 05:15:00,
2013-04-14 00:16:00,66.1,47.4,29.74,SE,142,6.0,8.0,51,0.00,,,0.00,0,Wunderground v.1.15,2013-04-14 05:16:00,
2013-04-14 00:17:00,66.1,47.4,29.74,SSE,166,6.0,8.0,51,0.00,,,0.00,0,Wunderground v.1.15,2013-04-14 05:17:00,
2013-04-14 00:19:00,66.0,47.3,29.74,SSE,150,6.0,8.0,51,0.00,,,0.00,0,Wunderground v.1.15,2013-04-14 05:19:00,
2013-04-14 00:23:00,65.9,47.3,29.74,SE,136,6.0,6.0,51,0.00,,,0.00,0,Wunderground v.1.15,2013-04-14 05:23:00,
2013-04-14 00:24:00,65.9,47.3,29.74,SE,146,6.0,6.0,51,0.00,,,0.00,0,Wunderground v.1.15,2013-04-14 05:24:00,
2013-04-14 00:29:00,65.8,47.7,29.74,SE,144,6.0,8.0,52,0.00,,,0.00,0,Wunderground v.1.15,2013-04-14 05:29:00,
2013-04-14 00:30:00,65.8,47.7,29.74,SSE,159,6.0,8.0,52,0.00,,,0.00,0,Wunderground v.1.15,2013-04-14 05:30:00,
2013-04-14 00:32:00,65.8,47.7,29.74,SE,138,6.0,6.0,52,0.00,,,0.00,0,Wunderground v.1.15,2013-04-14 05:32:00,
2013-04-14 00:35:00,65.7,47.6,29.74,SSE,148,5.0,8.0,52,0.00,,,0.00,0,Wunderground v.1.15,2013-04-14 05:35:00,
2013-04-14 00:37:00,65.7,47.6,29.74,SE,143,5.0,8.0,52,0.00,,,0.00,0,Wunderground v.1.15,2013-04-14 05:37:00,
2013-04-14 00:40:00,65.6,47.5,29.74,SE,142,5.0,8.0,52,0.00,,,0.00,0,Wunderground v.1.15,2013-04-14 05:40:00,
2013-04-14 00:41:00,65.6,47.5,29.74,SE,143,5.0,5.0,52,0.00,,,0.00,0,Wunderground v.1.15,2013-04-14 05:41:00,
2013-04-14 00:42:00,65.6,47.5,29.74,SE,143,4.0,5.0,52,0.00,,,0.00,0,Wunderground v.1.15,2013-04-14 05:42:00,
2013-04-14 00:43:00,65.6,47.5,29.74,SSE,150,5.0,5.0,52,0.00,,,0.00,0,Wunderground v.1.15,2013-04-14 05:43:00,
2013-04-14 00:48:00,65.6,47.5,29.74,SE,134,4.0,7.0,52,0.00,,,0.00,0,Wunderground v.1.15,2013-04-14 05:48:00,
2013-04-14 00:50:00,65.6,47.5,29.74,SSE,155,4.0,7.0,52,0.00,,,0.00,0,Wunderground v.1.15,2013-04-14 05:50:00,
2013-04-14 00:51:00,65.7,47.6,29.74,SE,142,5.0,5.0,52,0.00,,,0.00,0,Wunderground v.1.15,2013-04-14 05:51:00,
2013-04-14 00:53:00,65.7,47.6,29.74,SE,132,5.0,5.0,52,0.00,,,0.00,0,Wunderground v.1.15,2013-04-14 05:53:00,
2013-04-14 00:55:00,65.7,47.6,29.74,SSE,149,5.0,5.0,52,0.00,,,0.00,0,Wunderground v.1.15,2013-04-14 05:55:00,
2013-04-14 01:01:00,65.7,47.6,29.74,SSE,148,5.0,5.0,52,0.00,,,0.00,0,Wunderground v.1.15,2013-04-14 06:01:00,
2013-04-14 01:02:00,65.6,47.5,29.74,SE,146,5.0,6.0,52,0.00,,,0.00,0,Wunderground v.1.15,2013-04-14 06:02:00,
2013-04-14 01:03:00,65.6,47.5,29.74,South,170,4.0,6.0,52,0.00,,,0.00,0,Wunderground v.1.15,2013-04-14 06:03:00,
2013-04-14 01:04:00,65.6,47.5,29.74,SSE,151,4.0,6.0,52,0.00,,,0.00,0,Wunderground v.1.15,2013-04-14 06:04:00,
2013-04-14 01:07:00,65.5,47.4,29.74,SSE,155,3.0,6.0,52,0.00,,,0.00,0,Wunderground v.1.15,2013-04-14 06:07:00,
2013-04-14 01:08:00,65.5,47.4,29.74,SSE,153,3.0,6.0,52,0.00,,,0.00,0,Wunderground v.1.15,2013-04-14 06:08:00,
2013-04-14 01:09:00,65.5,47.4,29.74,South,180,3.0,6.0,52,0.00,,,0.00,0,Wunderground v.1.15,2013-04-14 06:09:00,
2013-04-14 01:12:00,65.5,47.9,29.74,South,177,3.0,3.0,53,0.00,,,0.00,0,Wunderground v.1.15,2013-04-14 06:12:00,
2013-04-14 01:13:00,65.4,47.8,29.74,South,170,3.0,3.0,53,0.00,,,0.00,0,Wunderground v.1.15,2013-04-14 06:13:00,
2013-04-14 01:18:00,65.5,47.9,29.74,SSE,160,3.0,4.0,53,0.00,,,0.00,0,Wunderground v.1.15,2013-04-14 06:18:00,
2013-04-14 01:20:00,65.5,48.4,29.74,SSW,203,3.0,6.0,54,0.00,,,0.00,0,Wunderground v.1.15,2013-04-14 06:20:00,
2013-04-14 01:23:00,65.5,48.4,29.74,South,181,3.0,4.0,54,0.00,,,0.00,0,Wunderground v.1.15,2013-04-14 06:23:00,
2013-04-14 01:26:00,65.6,48.5,29.74,SSE,167,3.0,6.0,54,0.00,,,0.00,0,Wunderground v.1.15,2013-04-14 06:26:00,
2013-04-14 01:28:00,65.7,49.1,29.74,South,170,4.0,6.0,55,0.00,,,0.00,0,Wunderground v.1.15,2013-04-14 06:28:00,
2013-04-14 01:30:00,65.7,49.1,29.74,South,188,4.0,6.0,55,0.00,,,0.00,0,Wunderground v.1.15,2013-04-14 06:30:00,
2013-04-14 01:32:00,65.7,49.1,29.74,South,172,4.0,4.0,55,0.00,,,0.00,0,Wunderground v.1.15,2013-04-14 06:32:00,
2013-04-14 01:35:00,65.7,49.1,29.74,SSE,165,4.0,5.0,55,0.00,,,0.00,0,Wunderground v.1.15,2013-04-14 06:35:00,
2013-04-14 01:36:00,65.7,49.1,29.74,South,171,4.0,5.0,55,0.00,,,0.00,0,Wunderground v.1.15,2013-04-14 06:36:00,
2013-04-14 01:38:00,65.6,49.5,29.74,SSE,158,4.0,5.0,56,0.00,,,0.00,0,Wunderground v.1.15,2013-04-14 06:38:00,
2013-04-14 01:39:00,65.6,49.5,29.74,SSE,157,4.0,5.0,56,0.00,,,0.00,0,Wunderground v.1.15,2013-04-14 06:39:00,
2013-04-14 01:42:00,65.5,49.4,29.74,South,184,3.0,4.0,56,0.00,,,0.00,0,Wunderground v.1.15,2013-04-14 06:42:00,
2013-04-14 01:43:00,65.5,49.4,29.74,SSE,158,3.0,4.0,56,0.00,,,0.00,0,Wunderground v.1.15,2013-04-14 06:43:00,
2013-04-14 01:44:00,65.4,49.3,29.74,South,180,3.0,4.0,56,0.00,,,0.00,0,Wunderground v.1.15,2013-04-14 06:44:00,
2013-04-14 01:46:00,65.4,49.3,29.74,South,182,3.0,4.0,56,0.00,,,0.00,0,Wunderground v.1.15,2013-04-14 06:46:00,
2013-04-14 01:47:00,65.3,49.2,29.74,SSE,162,2.0,4.0,56,0.00,,,0.00,0,Wunderground v.1.15,2013-04-14 06:47:00,
2013-04-14 01:52:00,65.1,49.5,29.74,South,180,2.0,6.0,57,0.00,,,0.00,0,Wunderground v.1.15,2013-04-14 06:52:00,
2013-04-14 01:54:00,65.0,49.4,29.74,South,173,2.0,6.0,57,0.00,,,0.00,0,Wunderground v.1.15,2013-04-14 06:54:00,
2013-04-14 01:55:00,65.0,49.4,29.74,South,173,2.0,6.0,57,0.00,,,0.00,0,Wunderground v.1.15,2013-04-14 06:55:00,
2013-04-14 01:58:00,64.9,49.8,29.74,SSW,207,2.0,6.0,58,0.00,,,0.00,0,Wunderground v.1.15,2013-04-14 06:58:00,
2013-04-14 01:59:00,64.8,49.7,29.74,SSW,207,2.0,6.0,58,0.00,,,0.00,0,Wunderground v.1.15,2013-04-14 06:59:00,
2013-04-14 02:01:00,64.7,49.6,29.74,SSW,193,1.0,3.0,58,0.00,,,0.00,0,Wunderground v.1.15,2013-04-14 07:01:00,
2013-04-14 02:03:00,64.7,49.6,29.73,South,181,1.0,3.0,58,0.00,,,0.00,0,Wunderground v.1.15,2013-04-14 07:03:00,
2013-04-14 02:04:00,64.6,49.5,29.74,South,182,1.0,3.0,58,0.00,,,0.00,0,Wunderground v.1.15,2013-04-14 07:04:00,
2013-04-14 02:05:00,64.5,49.4,29.74,South,186,1.0,3.0,58,0.00,,,0.00,0,Wunderground v.1.15,2013-04-14 07:05:00,
2013-04-14 02:08:00,64.5,49.8,29.73,South,188,1.0,3.0,59,0.00,,,0.00,0,Wunderground v.1.15,2013-04-14 07:08:00,
2013-04-14 02:10:00,64.4,49.8,29.73,South,177,1.0,1.0,59,0.00,,,0.00,0,Wunderground v.1.15,2013-04-14 07:10:00,
2013-04-14 02:13:00,64.3,49.7,29.73,SSW,200,1.0,4.0,59,0.00,,,0.00,0,Wunderground v.1.15,2013-04-14 07:13:00,
2013-04-14 02:15:00,64.3,49.7,29.73,SSE,168,2.0,4.0,59,0.00,,,0.00,0,Wunderground v.1.15,2013-04-14 07:15:00,
2013-04-14 02:18:00,64.3,50.1,29.73,South,186,2.0,4.0,60,0.00,,,0.00,0,Wunderground v.1.15,2013-04-14 07:18:00,
2013-04-14 02:20:00,64.3,50.1,29.73,SSW,196,2.0,2.0,60,0.00,,,0.00,0,Wunderground v.1.15,2013-04-14 07:20:00,
2013-04-14 02:25:00,64.3,50.1,29.73,South,187,1.0,3.0,60,0.00,,,0.00,0,Wunderground v.1.15,2013-04-14 07:25:00,
2013-04-14 02:27:00,64.2,50.0,29.73,SSW,194,1.0,3.0,60,0.00,,,0.00,0,Wunderground v.1.15,2013-04-14 07:27:00,
2013-04-14 02:28:00,64.2,50.0,29.73,SSW,194,1.0,3.0,60,0.00,,,0.00,0,Wunderground v.1.15,2013-04-14 07:28:00,
2013-04-14 02:30:00,64.1,49.9,29.73,SSW,194,1.0,1.0,60,0.00,,,0.00,0,Wunderground v.1.15,2013-04-14 07:30:00,
2013-04-14 02:32:00,64.1,49.9,29.73,SSW,194,1.0,1.0,60,0.00,,,0.00,0,Wunderground v.1.15,2013-04-14 07:32:00,
2013-04-14 02:33:00,64.1,49.9,29.73,SW,217,1.0,2.0,60,0.00,,,0.00,0,Wunderground v.1.15,2013-04-14 07:33:00,
2013-04-14 02:35:00,64.1,49.9,29.73,SSW,213,1.0,2.0,60,0.00,,,0.00,0,Wunderground v.1.15,2013-04-14 07:35:00,
2013-04-14 02:38:00,64.1,49.9,29.73,SSW,203,1.0,3.0,60,0.00,,,0.00,0,Wunderground v.1.15,2013-04-14 07:38:00,
2013-04-14 02:39:00,64.1,49.9,29.72,South,173,1.0,3.0,60,0.00,,,0.00,0,Wunderground v.1.15,2013-04-14 07:39:00,
2013-04-14 02:40:00,64.1,49.9,29.72,South,178,1.0,1.0,60,0.00,,,0.00,0,Wunderground v.1.15,2013-04-14 07:40:00,
2013-04-14 02:44:00,64.1,49.9,29.72,South,175,1.0,3.0,60,0.00,,,0.00,0,Wunderground v.1.15,2013-04-14 07:44:00,
2013-04-14 02:45:00,64.1,49.9,29.72,South,174,1.0,3.0,60,0.00,,,0.00,0,Wunderground v.1.15,2013-04-14 07:45:00,
2013-04-14 02:49:00,64.1,49.9,29.72,South,183,1.0,3.0,60,0.00,,,0.00,0,Wunderground v.1.15,2013-04-14 07:49:00,
2013-04-14 02:53:00,64.0,49.8,29.71,South,184,1.0,2.0,60,0.00,,,0.00,0,Wunderground v.1.15,2013-04-14 07:53:00,
2013-04-14 02:55:00,64.0,49.8,29.71,South,188,1.0,2.0,60,0.00,,,0.00,0,Wunderground v.1.15,2013-04-14 07:55:00,
2013-04-14 02:58:00,64.0,49.8,29.71,South,184,1.0,2.0,60,0.00,,,0.00,0,Wunderground v.1.15,2013-04-14 07:58:00,
2013-04-14 02:59:00,64.0,49.8,29.71,SSW,198,1.0,2.0,60,0.00,,,0.00,0,Wunderground v.1.15,2013-04-14 07:59:00,
2013-04-14 03:02:00,64.0,49.8,29.71,South,189,1.0,1.0,60,0.00,,,0.00,0,Wunderground v.1.15,2013-04-14 08:02:00,
2013-04-14 03:03:00,63.9,49.7,29.71,SW,220,1.0,1.0,60,0.00,,,0.00,0,Wunderground v.1.15,2013-04-14 08:03:00,
2013-04-14 03:04:00,63.9,49.7,29.71,SW,220,1.0,1.0,60,0.00,,,0.00,0,Wunderground v.1.15,2013-04-14 08:04:00,
2013-04-14 03:07:00,63.8,49.6,29.71,SW,219,1.0,1.0,60,0.00,,,0.00,0,Wunderground v.1.15,2013-04-14 08:07:00,
2013-04-14 03:08:00,63.8,49.6,29.71,SW,226,1.0,1.0,60,0.00,,,0.00,0,Wunderground v.1.15,2013-04-14 08:08:00,
2013-04-14 03:13:00,63.7,49.5,29.71,SW,217,1.0,1.0,60,0.00,,,0.00,0,Wunderground v.1.15,2013-04-14 08:13:00,
2013-04-14 03:15:00,63.6,49.5,29.71,SSW,197,1.0,2.0,60,0.00,,,0.00,0,Wunderground v.1.15,2013-04-14 08:15:00,
2013-04-14 03:16:00,63.6,49.5,29.70,SSW,193,1.0,2.0,60,0.00,,,0.00,0,Wunderground v.1.15,2013-04-14 08:16:00,
2013-04-14 03:20:00,63.4,49.7,29.70,SSE,165,1.0,3.0,61,0.00,,,0.00,0,Wunderground v.1.15,2013-04-14 08:20:00,
2013-04-14 03:22:00,63.4,49.7,29.70,SSE,165,1.0,1.0,61,0.00,,,0.00,0,Wunderground v.1.15,2013-04-14 08:22:00,
2013-04-14 03:25:00,63.2,49.5,29.70,South,185,2.0,2.0,61,0.00,,,0.00,0,Wunderground v.1.15,2013-04-14 08:25:00,
2013-04-14 03:26:00,63.2,49.5,29.70,South,185,2.0,2.0,61,0.00,,,0.00,0,Wunderground v.1.15,2013-04-14 08:26:00,
2013-04-14 03:28:00,63.2,49.5,29.70,South,191,1.0,2.0,61,0.00,,,0.00,0,Wunderground v.1.15,2013-04-14 08:28:00,
2013-04-14 03:32:00,63.0,49.3,29.70,SSW,196,1.0,1.0,61,0.00,,,0.00,0,Wunderground v.1.15,2013-04-14 08:32:00,
2013-04-14 03:34:00,62.9,49.2,29.70,SSW,196,1.0,1.0,61,0.00,,,0.00,0,Wunderground v.1.15,2013-04-14 08:34:00,
2013-04-14 03:36:00,62.8,49.6,29.70,SSW,196,0.0,1.0,62,0.00,,,0.00,0,Wunderground v.1.15,2013-04-14 08:36:00,
2013-04-14 03:41:00,62.6,49.4,29.70,SSW,196,0.0,0.0,62,0.00,,,0.00,0,Wunderground v.1.15,2013-04-14 08:41:00,
2013-04-14 03:42:00,62.5,49.3,29.70,SSW,196,0.0,1.0,62,0.00,,,0.00,0,Wunderground v.1.15,2013-04-14 08:42:00,
2013-04-14 03:45:00,62.3,49.5,29.69,SSW,195,0.0,3.0,63,0.00,,,0.00,0,Wunderground v.1.15,2013-04-14 08:45:00,
2013-04-14 03:48:00,62.1,49.4,29.69,SSW,194,1.0,3.0,63,0.00,,,0.00,0,Wunderground v.1.15,2013-04-14 08:48:00,
2013-04-14 03:50:00,61.8,49.1,29.69,SSE,147,1.0,3.0,63,0.00,,,0.00,0,Wunderground v.1.15,2013-04-14 08:50:00,
2013-04-14 03:53:00,61.7,49.4,29.69,SSE,150,2.0,4.0,64,0.00,,,0.00,0,Wunderground v.1.15,2013-04-14 08:53:00,
2013-04-14 03:54:00,61.6,49.3,29.69,SSE,154,2.0,4.0,64,0.00,,,0.00,0,Wunderground v.1.15,2013-04-14 08:54:00,
2013-04-14 03:57:00,61.5,49.2,29.69,SSE,159,2.0,4.0,64,0.00,,,0.00,0,Wunderground v.1.15,2013-04-14 08:57:00,
2013-04-14 04:00:00,61.4,49.1,29.69,South,175,2.0,4.0,64,0.00,,,0.00,0,Wunderground v.1.15,2013-04-14 09:00:00,
2013-04-14 04:03:00,61.3,49.0,29.69,SSE,164,2.0,4.0,64,0.00,,,0.00,0,Wunderground v.1.15,2013-04-14 09:03:00,
2013-04-14 04:06:00,61.3,49.0,29.69,SSE,163,3.0,4.0,64,0.00,,,0.00,0,Wunderground v.1.15,2013-04-14 09:06:00,
2013-04-14 04:08:00,61.2,48.9,29.69,SSE,167,3.0,5.0,64,0.00,,,0.00,0,Wunderground v.1.15,2013-04-14 09:08:00,
2013-04-14 04:10:00,61.2,48.9,29.68,SSE,165,3.0,4.0,64,0.00,,,0.00,0,Wunderground v.1.15,2013-04-14 09:10:00,
2013-04-14 04:12:00,61.2,48.9,29.68,SSE,155,3.0,7.0,64,0.00,,,0.00,0,Wunderground v.1.15,2013-04-14 09:12:00,
2013-04-14 04:17:00,61.2,48.9,29.67,SSE,160,4.0,7.0,64,0.00,,,0.00,0,Wunderground v.1.15,2013-04-14 09:17:00,
2013-04-14 04:19:00,61.2,48.9,29.67,SE,142,4.0,7.0,64,0.00,,,0.00,0,Wunderground v.1.15,2013-04-14 09:19:00,
2013-04-14 04:21:00,61.2,48.9,29.67,SE,146,4.0,7.0,64,0.00,,,0.00,0,Wunderground v.1.15,2013-04-14 09:21:00,
2013-04-14 04:22:00,61.2,48.9,29.67,South,169,5.0,7.0,64,0.00,,,0.00,0,Wunderground v.1.15,2013-04-14 09:22:00,
2013-04-14 04:25:00,61.3,49.0,29.67,SSE,167,4.0,7.0,64,0.00,,,0.00,0,Wunderground v.1.15,2013-04-14 09:25:00,
2013-04-14 04:27:00,61.3,49.0,29.67,SSE,167,4.0,7.0,64,0.00,,,0.00,0,Wunderground v.1.15,2013-04-14 09:27:00,
2013-04-14 04:29:00,61.2,48.9,29.67,South,171,4.0,7.0,64,0.00,,,0.00,0,Wunderground v.1.15,2013-04-14 09:29:00,
2013-04-14 04:30:00,61.2,49.3,29.67,SSE,163,4.0,4.0,65,0.00,,,0.00,0,Wunderground v.1.15,2013-04-14 09:30:00,
2013-04-14 04:32:00,61.2,49.3,29.68,SSE,161,3.0,4.0,65,0.00,,,0.00,0,Wunderground v.1.15,2013-04-14 09:32:00,
2013-04-14 04:35:00,61.1,49.2,29.68,South,169,3.0,4.0,65,0.00,,,0.00,0,Wunderground v.1.15,2013-04-14 09:35:00,
2013-04-14 04:38:00,61.0,49.1,29.67,SSE,161,3.0,4.0,65,0.00,,,0.00,0,Wunderground v.1.15,2013-04-14 09:38:00,
2013-04-14 04:42:00,60.9,49.1,29.67,SSE,159,3.0,6.0,65,0.00,,,0.00,0,Wunderground v.1.15,2013-04-14 09:42:00,
2013-04-14 04:43:00,60.9,49.1,29.67,SSE,166,3.0,6.0,65,0.00,,,0.00,0,Wunderground v.1.15,2013-04-14 09:43:00,
2013-04-14 04:45:00,60.9,49.1,29.67,SSE,163,3.0,6.0,65,0.00,,,0.00,0,Wunderground v.1.15,2013-04-14 09:45:00,
2013-04-14 04:48:00,60.8,49.4,29.67,SSE,156,4.0,7.0,66,0.00,,,0.00,0,Wunderground v.1.15,2013-04-14 09:48:00,
2013-04-14 04:49:00,60.9,49.5,29.67,SSE,153,4.0,7.0,66,0.00,,,0.00,0,Wunderground v.1.15,2013-04-14 09:49:00,
2013-04-14 04:50:00,60.8,49.4,29.67,SE,139,4.0,4.0,66,0.00,,,0.00,0,Wunderground v.1.15,2013-04-14 09:50:00,
2013-04-14 04:54:00,60.8,49.4,29.67,SSE,156,5.0,7.0,66,0.00,,,0.00,0,Wunderground v.1.15,2013-04-14 09:54:00,
2013-04-14 04:55:00,60.8,49.4,29.67,SE,131,5.0,7.0,66,0.00,,,0.00,0,Wunderground v.1.15,2013-04-14 09:55:00,
2013-04-14 05:01:00,60.7,49.7,29.66,South,177,4.0,4.0,67,0.00,,,0.00,0,Wunderground v.1.15,2013-04-14 10:01:00,
2013-04-14 05:02:00,60.7,49.7,29.66,South,177,4.0,4.0,67,0.00,,,0.00,0,Wunderground v.1.15,2013-04-14 10:02:00,
2013-04-14 05:05:00,60.7,49.7,29.66,SSE,166,4.0,5.0,67,0.00,,,0.00,0,Wunderground v.1.15,2013-04-14 10:05:00,
2013-04-14 05:07:00,60.7,49.7,29.66,SSE,167,4.0,5.0,67,0.00,,,0.00,0,Wunderground v.1.15,2013-04-14 10:07:00,
2013-04-14 05:08:00,60.7,49.7,29.66,South,172,4.0,5.0,67,0.00,,,0.00,0,Wunderground v.1.15,2013-04-14 10:08:00,
2013-04-14 05:10:00,60.7,49.7,29.66,SSE,161,4.0,5.0,67,0.00,,,0.00,0,Wunderground v.1.15,2013-04-14 10:10:00,
2013-04-14 05:13:00,60.6,50.0,29.66,SSE,157,4.0,4.0,68,0.00,,,0.00,0,Wunderground v.1.15,2013-04-14 10:13:00,
2013-04-14 05:15:00,60.6,50.0,29.66,South,180,3.0,4.0,68,0.00,,,0.00,0,Wunderground v.1.15,2013-04-14 10:15:00,
2013-04-14 05:17:00,60.6,50.0,29.66,SSE,150,3.0,8.0,68,0.00,,,0.00,0,Wunderground v.1.15,2013-04-14 10:17:00,
2013-04-14 05:18:00,60.6,50.0,29.66,SE,143,4.0,8.0,68,0.00,,,0.00,0,Wunderground v.1.15,2013-04-14 10:18:00,
2013-04-14 05:22:00,60.6,50.4,29.66,SSE,166,4.0,5.0,69,0.00,,,0.00,0,Wunderground v.1.15,2013-04-14 10:22:00,
2013-04-14 05:24:00,60.6,50.4,29.66,SSE,161,4.0,11.0,69,0.00,,,0.00,0,Wunderground v.1.15,2013-04-14 10:24:00,
2013-04-14 05:25:00,60.6,50.4,29.66,South,169,5.0,11.0,69,0.00,,,0.00,0,Wunderground v.1.15,2013-04-14 10:25:00,
2013-04-14 05:28:00,60.7,50.5,29.66,SE,138,5.0,11.0,69,0.00,,,0.00,0,Wunderground v.1.15,2013-04-14 10:28:00,
2013-04-14 05:30:00,60.6,50.8,29.66,SSE,154,5.0,11.0,70,0.00,,,0.00,0,Wunderground v.1.15,2013-04-14 10:30:00,
2013-04-14 05:31:00,60.6,50.8,29.66,SSE,160,5.0,5.0,70,0.00,,,0.00,0,Wunderground v.1.15,2013-04-14 10:31:00,
2013-04-14 05:35:00,60.6,50.8,29.66,South,190,5.0,7.0,70,0.00,,,0.00,0,Wunderground v.1.15,2013-04-14 10:35:00,
2013-04-14 05:36:00,60.6,50.8,29.66,South,190,4.0,7.0,70,0.00,,,0.00,0,Wunderground v.1.15,2013-04-14 10:36:00,
2013-04-14 05:38:00,60.5,50.7,29.66,SSE,153,4.0,7.0,70,0.00,,,0.00,0,Wunderground v.1.15,2013-04-14 10:38:00,
2013-04-14 05:40:00,60.5,51.0,29.66,South,169,3.0,7.0,71,0.00,,,0.00,0,Wunderground v.1.15,2013-04-14 10:40:00,
2013-04-14 05:42:00,60.5,50.7,29.66,SSW,205,3.0,4.0,70,0.00,,,0.00,0,Wunderground v.1.15,2013-04-14 10:42:00,
2013-04-14 05:46:00,60.4,51.0,29.66,SSE,164,2.0,4.0,71,0.00,,,0.00,0,Wunderground v.1.15,2013-04-14 10:46:00,
2013-04-14 05:47:00,60.3,50.9,29.66,SSE,157,3.0,4.0,71,0.00,,,0.00,0,Wunderground v.1.15,2013-04-14 10:47:00,
2013-04-14 05:48:00,60.3,50.9,29.66,South,187,3.0,4.0,71,0.00,,,0.00,0,Wunderground v.1.15,2013-04-14 10:48:00,
2013-04-14 05:49:00,60.3,50.9,29.66,South,180,3.0,5.0,71,0.00,,,0.00,0,Wunderground v.1.15,2013-04-14 10:49:00,
2013-04-14 05:52:00,60.2,50.8,29.66,South,176,3.0,4.0,71,0.00,,,0.00,0,Wunderground v.1.15,2013-04-14 10:52:00,
2013-04-14 05:54:00,60.1,51.0,29.66,South,185,3.0,6.0,72,0.00,,,0.00,0,Wunderground v.1.15,2013-04-14 10:54:00,
2013-04-14 05:56:00,60.0,50.9,29.66,SSE,151,3.0,6.0,72,0.00,,,0.00,0,Wunderground v.1.15,2013-04-14 10:56:00,
2013-04-14 05:59:00,59.9,50.8,29.66,SE,142,3.0,6.0,72,0.00,,,0.00,0,Wunderground v.1.15,2013-04-14 10:59:00,
2013-04-14 06:00:00,59.9,50.8,29.67,South,186,3.0,6.0,72,0.00,,,0.00,0,Wunderground v.1.15,2013-04-14 11:00:00,
2013-04-14 06:02:00,59.9,50.8,29.67,South,178,3.0,6.0,72,0.00,,,0.00,0,Wunderground v.1.15,2013-04-14 11:02:00,
2013-04-14 06:04:00,59.8,50.8,29.67,SSW,194,2.0,6.0,72,0.00,,,0.00,0,Wunderground v.1.15,2013-04-14 11:04:00,
2013-04-14 06:07:00,59.7,50.7,29.67,South,178,2.0,6.0,72,0.00,,,0.00,0,Wunderground v.1.15,2013-04-14 11:07:00,
2013-04-14 06:10:00,59.6,50.9,29.67,SSW,199,1.0,4.0,73,0.00,,,0.00,0,Wunderground v.1.15,2013-04-14 11:10:00,
2013-04-14 06:13:00,59.5,50.8,29.67,SSE,162,1.0,4.0,73,0.00,,,0.00,0,Wunderground v.1.15,2013-04-14 11:13:00,
2013-04-14 06:14:00,59.5,50.8,29.67,SSE,167,1.0,4.0,73,0.00,,,0.00,0,Wunderground v.1.15,2013-04-14 11:14:00,
2013-04-14 06:18:00,59.4,50.7,29.67,SSE,165,2.0,6.0,73,0.00,,,0.00,0,Wunderground v.1.15,2013-04-14 11:18:00,
2013-04-14 06:19:00,59.3,50.6,29.66,SSE,165,2.0,6.0,73,0.00,,,0.00,0,Wunderground v.1.15,2013-04-14 11:19:00,
2013-04-14 06:21:00,59.2,50.9,29.66,South,173,2.0,3.0,74,0.00,,,0.00,0,Wunderground v.1.15,2013-04-14 11:21:00,
2013-04-14 06:24:00,59.1,50.8,29.67,SSE,158,2.0,3.0,74,0.00,,,0.00,0,Wunderground v.1.15,2013-04-14 11:24:00,
2013-04-14 06:25:00,59.1,50.8,29.67,South,172,2.0,3.0,74,0.00,,,0.00,0,Wunderground v.1.15,2013-04-14 11:25:00,
2013-04-14 06:27:00,59.1,50.8,29.66,South,182,2.0,3.0,74,0.00,,,0.00,0,Wunderground v.1.15,2013-04-14 11:27:00,
2013-04-14 06:28:00,59.0,50.7,29.67,South,175,2.0,3.0,74,0.00,,,0.00,0,Wunderground v.1.15,2013-04-14 11:28:00,
2013-04-14 06:29:00,59.0,50.7,29.67,South,179,2.0,3.0,74,0.00,,,0.00,0,Wunderground v.1.15,2013-04-14 11:29:00,
2013-04-14 06:33:00,58.9,50.6,29.67,South,178,1.0,4.0,74,0.00,,,0.00,0,Wunderground v.1.15,2013-04-14 11:33:00,
2013-04-14 06:35:00,58.8,50.9,29.67,SSE,164,1.0,4.0,75,0.00,,,0.00,0,Wunderground v.1.15,2013-04-14 11:35:00,
2013-04-14 06:38:00,58.7,50.8,29.67,South,182,1.0,4.0,75,0.00,,,0.00,0,Wunderground v.1.15,2013-04-14 11:38:00,
2013-04-14 06:39:00,58.7,50.8,29.67,SSE,164,1.0,4.0,75,0.00,,,0.00,0,Wunderground v.1.15,2013-04-14 11:39:00,
2013-04-14 06:41:00,58.7,50.8,29.67,SSE,150,2.0,6.0,75,0.00,,,0.00,0,Wunderground v.1.15,2013-04-14 11:41:00,
2013-04-14 06:47:00,58.5,51.0,29.67,SSE,168,3.0,6.0,76,0.00,,,0.00,0,Wunderground v.1.15,2013-04-14 11:47:00,
2013-04-14 06:48:00,58.5,51.0,29.67,South,175,3.0,8.0,76,0.00,,,0.00,0,Wunderground v.1.15,2013-04-14 11:48:00,
2013-04-14 06:50:00,58.5,51.0,29.67,SE,142,3.0,3.0,76,0.00,,,0.00,0,Wunderground v.1.15,2013-04-14 11:50:00,
2013-04-14 06:54:00,58.5,51.3,29.66,SE,134,3.0,4.0,77,0.00,,,0.00,0,Wunderground v.1.15,2013-04-14 11:54:00,
2013-04-14 06:55:00,58.5,51.3,29.66,SSE,159,4.0,4.0,77,0.00,,,0.00,0,Wunderground v.1.15,2013-04-14 11:55:00,
2013-04-14 06:57:00,58.5,51.3,29.66,SE,138,4.0,9.0,77,0.00,,,0.00,0,Wunderground v.1.15,2013-04-14 11:57:00,
2013-04-14 06:58:00,58.5,51.3,29.67,SSE,168,4.0,9.0,77,0.00,,,0.00,0,Wunderground v.1.15,2013-04-14 11:58:00,
2013-04-14 07:00:00,58.5,51.3,29.67,South,186,4.0,4.0,77,0.00,,,0.00,5,Wunderground v.1.15,2013-04-14 12:00:00,
2013-04-14 07:03:00,58.5,51.3,29.67,South,173,4.0,6.0,77,0.00,,,0.00,7,Wunderground v.1.15,2013-04-14 12:03:00,
2013-04-14 07:07:00,58.4,51.6,29.67,SSE,157,3.0,8.0,78,0.00,,,0.00,11,Wunderground v.1.15,2013-04-14 12:07:00,
2013-04-14 07:09:00,58.5,51.7,29.67,South,169,3.0,8.0,78,0.00,,,0.00,12,Wunderground v.1.15,2013-04-14 12:09:00,
2013-04-14 07:11:00,58.4,51.6,29.67,South,171,3.0,4.0,78,0.00,,,0.00,14,Wunderground v.1.15,2013-04-14 12:11:00,
2013-04-14 07:14:00,58.5,51.7,29.67,SSE,157,3.0,6.0,78,0.00,,,0.00,18,Wunderground v.1.15,2013-04-14 12:14:00,
2013-04-14 07:15:00,58.5,51.7,29.67,SSE,161,3.0,6.0,78,0.00,,,0.00,19,Wunderground v.1.15,2013-04-14 12:15:00,
2013-04-14 07:19:00,58.5,52.0,29.67,SSE,158,3.0,6.0,79,0.00,,,0.00,23,Wunderground v.1.15,2013-04-14 12:19:00,
2013-04-14 07:20:00,58.5,52.0,29.67,SE,137,3.0,8.0,79,0.00,,,0.00,25,Wunderground v.1.15,2013-04-14 12:20:00,
2013-04-14 07:23:00,58.6,52.1,29.67,SSW,194,3.0,8.0,79,0.00,,,0.00,28,Wunderground v.1.15,2013-04-14 12:23:00,
2013-04-14 07:25:00,58.6,52.1,29.67,South,170,3.0,8.0,79,0.00,,,0.00,30,Wunderground v.1.15,2013-04-14 12:25:00,
2013-04-14 07:26:00,58.6,52.1,29.67,SSE,151,3.0,8.0,79,0.00,,,0.00,32,Wunderground v.1.15,2013-04-14 12:26:00,
2013-04-14 07:29:00,58.7,52.5,29.67,SSE,165,4.0,8.0,80,0.00,,,0.00,37,Wunderground v.1.15,2013-04-14 12:29:00,
2013-04-14 07:30:00,58.8,52.6,29.67,SSE,163,4.0,4.0,80,0.00,,,0.00,40,Wunderground v.1.15,2013-04-14 12:30:00,
2013-04-14 07:32:00,58.8,52.6,29.67,SSE,157,4.0,6.0,80,0.00,,,0.00,42,Wunderground v.1.15,2013-04-14 12:32:00,
2013-04-14 07:35:00,59.0,52.8,29.67,SSE,153,4.0,6.0,80,0.00,,,0.00,49,Wunderground v.1.15,2013-04-14 12:35:00,
2013-04-14 07:37:00,59.1,52.9,29.67,SSE,148,4.0,6.0,80,0.00,,,0.00,54,Wunderground v.1.15,2013-04-14 12:37:00,
2013-04-14 07:40:00,59.3,53.5,29.67,SE,128,5.0,5.0,81,0.00,,,0.00,62,Wunderground v.1.15,2013-04-14 12:40:00,
2013-04-14 07:42:00,59.3,53.5,29.67,SSE,148,5.0,5.0,81,0.00,,,0.00,67,Wunderground v.1.15,2013-04-14 12:42:00,
2013-04-14 07:45:00,59.5,53.7,29.67,ESE,121,5.0,8.0,81,0.00,,,0.00,76,Wunderground v.1.15,2013-04-14 12:45:00,
2013-04-14 07:46:00,59.6,53.8,29.67,SSE,154,5.0,8.0,81,0.00,,,0.00,76,Wunderground v.1.15,2013-04-14 12:46:00,
2013-04-14 07:49:00,59.7,53.5,29.67,SSE,147,5.0,8.0,80,0.00,,,0.00,84,Wunderground v.1.15,2013-04-14 12:49:00,
2013-04-14 07:50:00,59.7,53.5,29.67,SSE,153,5.0,7.0,80,0.00,,,0.00,90,Wunderground v.1.15,2013-04-14 12:50:00,
2013-04-14 07:55:00,59.5,53.3,29.67,SSE,150,6.0,11.0,80,0.00,,,0.00,105,Wunderground v.1.15,2013-04-14 12:55:00,
2013-04-14 07:56:00,59.5,53.3,29.67,SSE,155,7.0,11.0,80,0.00,,,0.00,105,Wunderground v.1.15,2013-04-14 12:56:00,
2013-04-14 07:58:00,59.5,53.3,29.67,SE,142,7.0,11.0,80,0.00,,,0.00,113,Wunderground v.1.15,2013-04-14 12:58:00,
2013-04-14 07:59:00,59.4,53.2,29.67,SSE,148,7.0,11.0,80,0.00,,,0.00,116,Wunderground v.1.15,2013-04-14 12:59:00,
2013-04-14 08:03:00,59.3,53.1,29.68,South,172,7.0,8.0,80,0.00,,,0.00,127,Wunderground v.1.15,2013-04-14 13:03:00,
2013-04-14 08:04:00,59.3,53.1,29.68,SSE,158,7.0,8.0,80,0.00,,,0.00,132,Wunderground v.1.15,2013-04-14 13:04:00,
2013-04-14 08:05:00,59.4,53.2,29.68,SE,139,6.0,8.0,80,0.00,,,0.00,134,Wunderground v.1.15,2013-04-14 13:05:00,
2013-04-14 08:08:00,59.4,53.2,29.68,SSE,158,6.0,8.0,80,0.00,,,0.00,142,Wunderground v.1.15,2013-04-14 13:08:00,
2013-04-14 08:09:00,59.4,53.2,29.68,SSE,159,6.0,8.0,80,0.00,,,0.00,144,Wunderground v.1.15,2013-04-14 13:09:00,
2013-04-14 08:11:00,59.4,53.2,29.68,SSE,147,6.0,6.0,80,0.00,,,0.00,151,Wunderground v.1.15,2013-04-14 13:11:00,
2013-04-14 08:13:00,59.5,53.3,29.68,SE,139,6.0,11.0,80,0.00,,,0.00,158,Wunderground v.1.15,2013-04-14 13:13:00,
2013-04-14 08:14:00,59.5,53.3,29.68,South,172,6.0,11.0,80,0.00,,,0.00,160,Wunderground v.1.15,2013-04-14 13:14:00,
2013-04-14 08:15:00,59.5,53.3,29.69,SSE,153,6.0,11.0,80,0.00,,,0.00,165,Wunderground v.1.15,2013-04-14 13:15:00,
2013-04-14 08:17:00,59.6,53.4,29.69,SSE,158,6.0,11.0,80,0.00,,,0.00,171,Wunderground v.1.15,2013-04-14 13:17:00,
2013-04-14 08:19:00,59.7,53.5,29.69,SSE,163,5.0,11.0,80,0.00,,,0.00,178,Wunderground v.1.15,2013-04-14 13:19:00,
2013-04-14 08:20:00,59.8,53.6,29.69,South,171,5.0,11.0,80,0.00,,,0.00,181,Wunderground v.1.15,2013-04-14 13:20:00,
2013-04-14 08:23:00,60.0,53.8,29.69,SE,132,4.0,5.0,80,0.00,,,0.00,188,Wunderground v.1.15,2013-04-14 13:23:00,
2013-04-14 08:25:00,60.0,53.5,29.69,South,174,4.0,6.0,79,0.00,,,0.00,199,Wunderground v.1.15,2013-04-14 13:25:00,
2013-04-14 08:28:00,60.2,53.7,29.69,SE,144,5.0,6.0,79,0.00,,,0.00,204,Wunderground v.1.15,2013-04-14 13:28:00,
2013-04-14 08:29:00,60.2,53.7,29.69,SE,146,5.0,6.0,79,0.00,,,0.00,209,Wunderground v.1.15,2013-04-14 13:29:00,
2013-04-14 08:30:00,60.2,53.7,29.69,SSE,148,5.0,7.0,79,0.00,,,0.00,211,Wunderground v.1.15,2013-04-14 13:30:00,
2013-04-14 08:31:00,60.2,53.7,29.70,SSE,159,5.0,6.0,79,0.00,,,0.00,211,Wunderground v.1.15,2013-04-14 13:31:00,
2013-04-14 08:34:00,60.2,53.7,29.70,SE,142,5.0,6.0,79,0.00,,,0.00,227,Wunderground v.1.15,2013-04-14 13:34:00,
2013-04-14 08:35:00,60.3,54.1,29.70,South,171,5.0,6.0,80,0.00,,,0.00,232,Wunderground v.1.15,2013-04-14 13:35:00,
2013-04-14 08:37:00,60.4,53.9,29.70,SSE,151,5.0,6.0,79,0.00,,,0.00,236,Wunderground v.1.15,2013-04-14 13:37:00,
2013-04-14 08:39:00,60.6,54.0,29.70,SSE,161,5.0,6.0,79,0.00,,,0.00,243,Wunderground v.1.15,2013-04-14 13:39:00,
2013-04-14 08:43:00,61.1,54.5,29.70,South,173,4.0,7.0,79,0.00,,,0.00,258,Wunderground v.1.15,2013-04-14 13:43:00,
2013-04-14 08:44:00,61.2,54.6,29.70,South,173,4.0,7.0,79,0.00,,,0.00,260,Wunderground v.1.15,2013-04-14 13:44:00,
2013-04-14 08:45:00,61.3,54.4,29.69,South,171,3.0,7.0,78,0.00,,,0.00,262,Wunderground v.1.15,2013-04-14 13:45:00,
2013-04-14 08:48:00,61.4,54.5,29.69,South,174,4.0,10.0,78,0.00,,,0.00,271,Wunderground v.1.15,2013-04-14 13:48:00,
2013-04-14 08:50:00,61.4,54.5,29.69,SE,146,4.0,10.0,78,0.00,,,0.00,281,Wunderground v.1.15,2013-04-14 13:50:00,
2013-04-14 08:54:00,61.7,54.8,29.69,SSE,152,5.0,6.0,78,0.00,,,0.00,281,Wunderground v.1.15,2013-04-14 13:54:00,
2013-04-14 08:55:00,61.8,54.9,29.69,South,183,5.0,6.0,78,0.00,,,0.00,299,Wunderground v.1.15,2013-04-14 13:55:00,
2013-04-14 08:56:00,61.9,55.0,29.70,South,190,5.0,6.0,78,0.00,,,0.00,294,Wunderground v.1.15,2013-04-14 13:56:00,
2013-04-14 09:00:00,62.1,55.2,29.69,SE,130,4.0,7.0,78,0.00,,,0.00,323,Wunderground v.1.15,2013-04-14 14:00:00,
2013-04-14 09:01:00,62.1,55.2,29.69,South,175,4.0,7.0,78,0.00,,,0.00,323,Wunderground v.1.15,2013-04-14 14:01:00,
2013-04-14 09:02:00,62.1,55.2,29.69,South,169,5.0,7.0,78,0.00,,,0.00,330,Wunderground v.1.15,2013-04-14 14:02:00,
2013-04-14 09:07:00,62.4,55.1,29.69,SE,144,5.0,7.0,77,0.00,,,0.00,345,Wunderground v.1.15,2013-04-14 14:07:00,
2013-04-14 09:09:00,62.5,55.2,29.69,SSE,155,5.0,9.0,77,0.00,,,0.00,352,Wunderground v.1.15,2013-04-14 14:09:00,
2013-04-14 09:12:00,62.5,55.2,29.69,SSE,167,6.0,8.0,77,0.00,,,0.00,364,Wunderground v.1.15,2013-04-14 14:12:00,
2013-04-14 09:13:00,62.5,55.2,29.68,SSE,151,6.0,8.0,77,0.00,,,0.00,279,Wunderground v.1.15,2013-04-14 14:13:00,
2013-04-14 09:14:00,62.6,55.3,29.68,SE,145,6.0,8.0,77,0.00,,,0.00,346,Wunderground v.1.15,2013-04-14 14:14:00,
2013-04-14 09:17:00,62.6,55.3,29.68,South,171,6.0,11.0,77,0.00,,,0.00,413,Wunderground v.1.15,2013-04-14 14:17:00,
2013-04-14 09:18:00,62.6,55.3,29.68,SSE,155,6.0,11.0,77,0.00,,,0.00,413,Wunderground v.1.15,2013-04-14 14:18:00,
2013-04-14 09:19:00,62.6,55.3,29.68,SE,143,6.0,11.0,77,0.00,,,0.00,452,Wunderground v.1.15,2013-04-14 14:19:00,
2013-04-14 09:20:00,62.7,55.4,29.68,SSE,167,6.0,9.0,77,0.00,,,0.00,508,Wunderground v.1.15,2013-04-14 14:20:00,
2013-04-14 09:24:00,62.9,55.6,29.68,SE,129,6.0,9.0,77,0.00,,,0.00,253,Wunderground v.1.15,2013-04-14 14:24:00,
2013-04-14 09:28:00,62.9,55.6,29.68,SE,135,6.0,9.0,77,0.00,,,0.00,258,Wunderground v.1.15,2013-04-14 14:28:00,
2013-04-14 09:32:00,62.8,55.8,29.68,South,172,7.0,9.0,78,0.00,,,0.00,258,Wunderground v.1.15,2013-04-14 14:32:00,
2013-04-14 09:33:00,62.8,55.8,29.68,SE,142,7.0,9.0,78,0.00,,,0.00,258,Wunderground v.1.15,2013-04-14 14:33:00,
2013-04-14 09:34:00,62.8,55.8,29.68,SSE,150,7.0,9.0,78,0.00,,,0.00,258,Wunderground v.1.15,2013-04-14 14:34:00,
2013-04-14 09:36:00,62.9,55.9,29.68,SSE,165,7.0,9.0,78,0.00,,,0.00,512,Wunderground v.1.15,2013-04-14 14:36:00,
2013-04-14 09:39:00,63.2,55.9,29.68,SSE,156,6.0,10.0,77,0.00,,,0.00,615,Wunderground v.1.15,2013-04-14 14:39:00,
2013-04-14 09:42:00,63.4,56.1,29.68,SE,138,6.0,12.0,77,0.00,,,0.00,501,Wunderground v.1.15,2013-04-14 14:42:00,
2013-04-14 09:44:00,63.4,55.7,29.68,SE,146,7.0,12.0,76,0.00,,,0.00,522,Wunderground v.1.15,2013-04-14 14:44:00,
2013-04-14 09:45:00,63.4,56.1,29.67,SE,130,8.0,12.0,77,0.00,,,0.00,538,Wunderground v.1.15,2013-04-14 14:45:00,
2013-04-14 09:47:00,63.4,56.1,29.67,South,180,8.0,12.0,77,0.00,,,0.00,515,Wunderground v.1.15,2013-04-14 14:47:00,
2013-04-14 09:49:00,63.4,55.7,29.67,SE,138,8.0,12.0,76,0.00,,,0.00,499,Wunderground v.1.15,2013-04-14 14:49:00,
2013-04-14 09:52:00,63.4,56.1,29.67,SSE,149,9.0,9.0,77,0.00,,,0.00,506,Wunderground v.1.15,2013-04-14 14:52:00,
2013-04-14 09:57:00,63.7,56.0,29.67,South,174,8.0,10.0,76,0.00,,,0.00,515,Wunderground v.1.15,2013-04-14 14:57:00,
2013-04-14 09:58:00,63.8,56.1,29.67,SE,140,8.0,10.0,76,0.00,,,0.00,524,Wunderground v.1.15,2013-04-14 14:58:00,
2013-04-14 09:59:00,64.0,56.3,29.66,SSE,154,8.0,10.0,76,0.00,,,0.00,526,Wunderground v.1.15,2013-04-14 14:59:00,
2013-04-14 10:04:00,64.3,55.5,29.67,SSE,162,7.0,9.0,73,0.00,,,0.00,534,Wunderground v.1.15,2013-04-14 15:04:00,
2013-04-14 10:05:00,64.4,55.9,29.67,SSE,150,7.0,9.0,74,0.00,,,0.00,550,Wunderground v.1.15,2013-04-14 15:05:00,
2013-04-14 10:06:00,64.5,56.0,29.67,SE,138,7.0,9.0,74,0.00,,,0.00,550,Wunderground v.1.15,2013-04-14 15:06:00,
2013-04-14 10:09:00,64.4,55.2,29.67,South,175,8.0,10.0,72,0.00,,,0.00,550,Wunderground v.1.15,2013-04-14 15:09:00,
2013-04-14 10:10:00,64.5,55.7,29.67,SSE,163,9.0,10.0,73,0.00,,,0.00,563,Wunderground v.1.15,2013-04-14 15:10:00,
2013-04-14 10:11:00,64.5,55.7,29.67,SE,146,8.0,12.0,73,0.00,,,0.00,563,Wunderground v.1.15,2013-04-14 15:11:00,
2013-04-14 10:14:00,64.7,55.8,29.67,South,173,8.0,14.0,73,0.00,,,0.00,573,Wunderground v.1.15,2013-04-14 15:14:00,
2013-04-14 10:16:00,64.7,55.5,29.67,South,174,9.0,14.0,72,0.00,,,0.00,580,Wunderground v.1.15,2013-04-14 15:16:00,
2013-04-14 10:18:00,64.9,55.7,29.67,SSE,168,8.0,14.0,72,0.00,,,0.00,587,Wunderground v.1.15,2013-04-14 15:18:00,
2013-04-14 10:21:00,65.1,55.1,29.67,ESE,113,8.0,9.0,70,0.00,,,0.00,596,Wunderground v.1.15,2013-04-14 15:21:00,
2013-04-14 10:26:00,65.3,55.3,29.66,SSE,148,8.0,13.0,70,0.00,,,0.00,608,Wunderground v.1.15,2013-04-14 15:26:00,
2013-04-14 10:27:00,65.4,54.6,29.66,SSE,147,8.0,13.0,68,0.00,,,0.00,615,Wunderground v.1.15,2013-04-14 15:27:00,
2013-04-14 10:32:00,65.9,55.0,29.66,SE,143,7.0,10.0,68,0.00,,,0.00,628,Wunderground v.1.15,2013-04-14 15:32:00,
2013-04-14 10:33:00,66.0,55.1,29.66,SSE,164,7.0,11.0,68,0.00,,,0.00,629,Wunderground v.1.15,2013-04-14 15:33:00,
2013-04-14 10:34:00,65.9,54.6,29.66,SE,139,7.0,14.0,67,0.00,,,0.00,631,Wunderground v.1.15,2013-04-14 15:34:00,
2013-04-14 10:38:00,65.7,54.4,29.66,SE,136,9.0,14.0,67,0.00,,,0.00,645,Wunderground v.1.15,2013-04-14 15:38:00,
2013-04-14 10:40:00,65.8,54.1,29.66,SE,141,10.0,14.0,66,0.00,,,0.00,652,Wunderground v.1.15,2013-04-14 15:40:00,
2013-04-14 10:42:00,66.1,54.8,29.66,SE,146,10.0,13.0,67,0.00,,,0.00,659,Wunderground v.1.15,2013-04-14 15:42:00,
2013-04-14 10:43:00,66.3,55.0,29.66,SSE,165,10.0,13.0,67,0.00,,,0.00,656,Wunderground v.1.15,2013-04-14 15:43:00,
2013-04-14 10:45:00,66.4,54.7,29.66,South,176,10.0,13.0,66,0.00,,,0.00,664,Wunderground v.1.15,2013-04-14 15:45:00,
2013-04-14 10:47:00,66.5,54.8,29.66,SE,146,9.0,13.0,66,0.00,,,0.00,664,Wunderground v.1.15,2013-04-14 15:47:00,
2013-04-14 10:48:00,66.7,55.0,29.66,SSE,148,9.0,13.0,66,0.00,,,0.00,670,Wunderground v.1.15,2013-04-14 15:48:00,
2013-04-14 10:50:00,66.9,55.2,29.66,South,175,8.0,13.0,66,0.00,,,0.00,673,Wunderground v.1.15,2013-04-14 15:50:00,
2013-04-14 10:52:00,67.0,54.8,29.66,SE,145,7.0,9.0,65,0.00,,,0.00,680,Wunderground v.1.15,2013-04-14 15:52:00,
2013-04-14 10:53:00,67.1,54.9,29.66,South,181,7.0,9.0,65,0.00,,,0.00,687,Wunderground v.1.15,2013-04-14 15:53:00,
2013-04-14 10:55:00,67.5,54.9,29.66,SSE,155,6.0,9.0,64,0.00,,,0.00,684,Wunderground v.1.15,2013-04-14 15:55:00,
2013-04-14 10:56:00,67.6,55.0,29.66,South,183,6.0,9.0,64,0.00,,,0.00,694,Wunderground v.1.15,2013-04-14 15:56:00,
2013-04-14 10:57:00,67.9,54.8,29.66,SSE,163,6.0,9.0,63,0.00,,,0.00,693,Wunderground v.1.15,2013-04-14 15:57:00,
2013-04-14 11:00:00,67.8,54.7,29.66,SE,139,6.0,11.0,63,0.00,,,0.00,700,Wunderground v.1.15,2013-04-14 16:00:00,
2013-04-14 11:01:00,67.7,54.6,29.66,SSE,161,6.0,11.0,63,0.00,,,0.00,703,Wunderground v.1.15,2013-04-14 16:01:00,
2013-04-14 11:06:00,67.5,54.9,29.66,SSE,154,8.0,16.0,64,0.00,,,0.00,715,Wunderground v.1.15,2013-04-14 16:06:00,
2013-04-14 11:08:00,67.7,55.1,29.66,South,184,9.0,16.0,64,0.00,,,0.00,719,Wunderground v.1.15,2013-04-14 16:08:00,
2013-04-14 11:12:00,68.0,54.9,29.65,South,169,9.0,10.0,63,0.00,,,0.00,731,Wunderground v.1.15,2013-04-14 16:12:00,
2013-04-14 11:13:00,68.0,55.4,29.65,SE,146,8.0,11.0,64,0.00,,,0.00,728,Wunderground v.1.15,2013-04-14 16:13:00,
2013-04-14 11:14:00,68.0,55.4,29.65,SSE,153,8.0,11.0,64,0.00,,,0.00,735,Wunderground v.1.15,2013-04-14 16:14:00,
2013-04-14 11:18:00,68.7,55.6,29.65,South,173,7.0,11.0,63,0.00,,,0.00,747,Wunderground v.1.15,2013-04-14 16:18:00,
2013-04-14 11:19:00,68.8,55.7,29.65,South,174,7.0,11.0,63,0.00,,,0.00,747,Wunderground v.1.15,2013-04-14 16:19:00,
2013-04-14 11:20:00,68.9,55.3,29.65,SE,130,7.0,8.0,62,0.00,,,0.00,751,Wunderground v.1.15,2013-04-14 16:20:00,
2013-04-14 11:22:00,69.0,55.4,29.65,SSE,148,7.0,8.0,62,0.00,,,0.00,756,Wunderground v.1.15,2013-04-14 16:22:00,
2013-04-14 11:25:00,69.1,56.0,29.65,SE,146,7.0,9.0,63,0.00,,,0.00,763,Wunderground v.1.15,2013-04-14 16:25:00,
2013-04-14 11:27:00,69.1,56.0,29.65,South,174,8.0,9.0,63,0.00,,,0.00,766,Wunderground v.1.15,2013-04-14 16:27:00,
2013-04-14 11:29:00,69.2,56.1,29.65,South,173,8.0,9.0,63,0.00,,,0.00,770,Wunderground v.1.15,2013-04-14 16:29:00,
2013-04-14 11:30:00,69.3,56.2,29.64,SSE,152,8.0,14.0,63,0.00,,,0.00,775,Wunderground v.1.15,2013-04-14 16:30:00,
2013-04-14 11:34:00,69.5,56.3,29.64,SSE,147,8.0,14.0,63,0.00,,,0.00,780,Wunderground v.1.15,2013-04-14 16:34:00,
2013-04-14 11:35:00,69.9,56.7,29.64,SSE,161,7.0,14.0,63,0.00,,,0.00,788,Wunderground v.1.15,2013-04-14 16:35:00,
2013-04-14 11:37:00,70.0,56.4,29.64,SSE,167,7.0,14.0,62,0.00,,,0.00,791,Wunderground v.1.15,2013-04-14 16:37:00,
2013-04-14 11:39:00,70.1,56.5,29.64,South,183,7.0,14.0,62,0.00,,,0.00,789,Wunderground v.1.15,2013-04-14 16:39:00,
2013-04-14 11:41:00,70.3,56.7,29.64,SSE,153,6.0,7.0,62,0.00,,,0.00,796,Wunderground v.1.15,2013-04-14 16:41:00,
2013-04-14 11:42:00,70.4,56.8,29.64,SE,141,7.0,13.0,62,0.00,,,0.00,800,Wunderground v.1.15,2013-04-14 16:42:00,
2013-04-14 11:44:00,70.4,56.8,29.64,SSE,157,7.0,13.0,62,0.00,,,0.00,803,Wunderground v.1.15,2013-04-14 16:44:00,
2013-04-14 11:46:00,70.4,56.8,29.64,SSE,161,8.0,13.0,62,0.00,,,0.00,809,Wunderground v.1.15,2013-04-14 16:46:00,
2013-04-14 11:49:00,70.2,56.6,29.64,SSE,160,8.0,13.0,62,0.00,,,0.00,810,Wunderground v.1.15,2013-04-14 16:49:00,
2013-04-14 11:50:00,70.1,56.9,29.64,SE,145,8.0,9.0,63,0.00,,,0.00,814,Wunderground v.1.15,2013-04-14 16:50:00,
2013-04-14 11:52:00,70.1,56.9,29.63,SE,127,9.0,14.0,63,0.00,,,0.00,816,Wunderground v.1.15,2013-04-14 16:52:00,
2013-04-14 11:55:00,70.3,56.7,29.63,SSE,158,10.0,14.0,62,0.00,,,0.00,821,Wunderground v.1.15,2013-04-14 16:55:00,
2013-04-14 11:59:00,70.5,57.3,29.63,SSE,155,11.0,14.0,63,0.00,,,0.00,828,Wunderground v.1.15,2013-04-14 16:59:00,
2013-04-14 12:02:00,70.8,57.1,29.63,SSE,148,11.0,11.0,62,0.00,,,0.00,835,Wunderground v.1.15,2013-04-14 17:02:00,
2013-04-14 12:04:00,70.9,57.2,29.63,SSE,159,11.0,13.0,62,0.00,,,0.00,840,Wunderground v.1.15,2013-04-14 17:04:00,
2013-04-14 12:06:00,71.2,57.5,29.63,South,171,10.0,13.0,62,0.00,,,0.00,842,Wunderground v.1.15,2013-04-14 17:06:00,
2013-04-14 12:09:00,71.5,57.3,29.63,South,171,9.0,13.0,61,0.00,,,0.00,849,Wunderground v.1.15,2013-04-14 17:09:00,
2013-04-14 12:11:00,71.6,57.0,29.62,SSE,160,9.0,10.0,60,0.00,,,0.00,849,Wunderground v.1.15,2013-04-14 17:11:00,
2013-04-14 12:13:00,71.6,57.4,29.62,SSE,155,9.0,10.0,61,0.00,,,0.00,853,Wunderground v.1.15,2013-04-14 17:13:00,
2013-04-14 12:14:00,71.7,57.5,29.62,SE,142,9.0,10.0,61,0.00,,,0.00,856,Wunderground v.1.15,2013-04-14 17:14:00,
2013-04-14 12:17:00,71.9,57.7,29.62,South,190,8.0,10.0,61,0.00,,,0.00,858,Wunderground v.1.15,2013-04-14 17:17:00,
2013-04-14 12:19:00,72.2,57.5,29.62,South,171,8.0,10.0,60,0.00,,,0.00,860,Wunderground v.1.15,2013-04-14 17:19:00,
2013-04-14 12:21:00,72.6,58.4,29.62,WSW,243,7.0,7.0,61,0.00,,,0.00,867,Wunderground v.1.15,2013-04-14 17:21:00,
2013-04-14 12:25:00,73.1,58.4,29.62,SE,142,5.0,7.0,60,0.00,,,0.00,874,Wunderground v.1.15,2013-04-14 17:25:00,
2013-04-14 12:26:00,73.1,58.4,29.62,South,184,6.0,7.0,60,0.00,,,0.00,874,Wunderground v.1.15,2013-04-14 17:26:00,
2013-04-14 12:30:00,73.3,58.1,29.62,South,181,6.0,11.0,59,0.00,,,0.00,868,Wunderground v.1.15,2013-04-14 17:30:00,
2013-04-14 12:32:00,73.5,58.3,29.62,SSE,157,6.0,6.0,59,0.00,,,0.00,868,Wunderground v.1.15,2013-04-14 17:32:00,
2013-04-14 12:34:00,73.7,58.5,29.62,SSW,211,6.0,6.0,59,0.00,,,0.00,882,Wunderground v.1.15,2013-04-14 17:34:00,
2013-04-14 12:35:00,73.9,58.7,29.62,SSE,167,6.0,7.0,59,0.00,,,0.00,884,Wunderground v.1.15,2013-04-14 17:35:00,
2013-04-14 12:38:00,73.9,59.1,29.62,SE,130,5.0,10.0,60,0.00,,,0.00,886,Wunderground v.1.15,2013-04-14 17:38:00,
2013-04-14 12:43:00,73.5,58.3,29.61,SSE,155,7.0,14.0,59,0.00,,,0.00,895,Wunderground v.1.15,2013-04-14 17:43:00,
2013-04-14 12:47:00,73.7,58.9,29.61,SE,143,8.0,14.0,60,0.00,,,0.00,895,Wunderground v.1.15,2013-04-14 17:47:00,
2013-04-14 12:48:00,73.9,58.7,29.61,SE,136,8.0,14.0,59,0.00,,,0.00,898,Wunderground v.1.15,2013-04-14 17:48:00,
2013-04-14 12:50:00,73.9,58.7,29.61,SSE,159,9.0,14.0,59,0.00,,,0.00,904,Wunderground v.1.15,2013-04-14 17:50:00,
2013-04-14 12:51:00,73.8,58.6,29.61,South,171,9.0,9.0,59,0.00,,,0.00,905,Wunderground v.1.15,2013-04-14 17:51:00,
2013-04-14 12:55:00,74.3,59.0,29.61,SE,131,8.0,9.0,59,0.00,,,0.00,900,Wunderground v.1.15,2013-04-14 17:55:00,
2013-04-14 12:56:00,74.4,59.1,29.61,SE,144,8.0,12.0,59,0.00,,,0.00,900,Wunderground v.1.15,2013-04-14 17:56:00,
2013-04-14 13:01:00,74.9,58.6,29.61,South,179,7.0,7.0,57,0.00,,,0.00,907,Wunderground v.1.15,2013-04-14 18:01:00,
2013-04-14 13:02:00,74.8,58.5,29.61,SE,144,7.0,7.0,57,0.00,,,0.00,911,Wunderground v.1.15,2013-04-14 18:02:00,
2013-04-14 13:03:00,74.7,58.5,29.61,SSE,155,7.0,11.0,57,0.00,,,0.00,911,Wunderground v.1.15,2013-04-14 18:03:00,
2013-04-14 13:05:00,74.8,58.5,29.61,South,171,8.0,11.0,57,0.00,,,0.00,905,Wunderground v.1.15,2013-04-14 18:05:00,
2013-04-14 13:09:00,75.2,58.9,29.60,SSE,150,7.0,11.0,57,0.00,,,0.00,914,Wunderground v.1.15,2013-04-14 18:09:00,
2013-04-14 13:10:00,75.3,59.0,29.60,SSE,164,7.0,11.0,57,0.00,,,0.00,909,Wunderground v.1.15,2013-04-14 18:10:00,
2013-04-14 13:11:00,75.3,59.0,29.60,SSE,168,7.0,7.0,57,0.00,,,0.00,914,Wunderground v.1.15,2013-04-14 18:11:00,
2013-04-14 13:15:00,75.6,58.8,29.60,South,173,6.0,11.0,56,0.00,,,0.00,918,Wunderground v.1.15,2013-04-14 18:15:00,
2013-04-14 13:16:00,75.6,58.8,29.60,SSE,152,7.0,11.0,56,0.00,,,0.00,916,Wunderground v.1.15,2013-04-14 18:16:00,
2013-04-14 13:17:00,75.4,58.6,29.60,SSW,196,7.0,11.0,56,0.00,,,0.00,912,Wunderground v.1.15,2013-04-14 18:17:00,
2013-04-14 13:18:00,75.2,58.4,29.60,SE,138,8.0,17.0,56,0.00,,,0.00,916,Wunderground v.1.15,2013-04-14 18:18:00,
2013-04-14 13:23:00,75.2,58.9,29.59,SSE,153,9.0,12.0,57,0.00,,,0.00,919,Wunderground v.1.15,2013-04-14 18:23:00,
2013-04-14 13:25:00,75.1,58.8,29.59,SSE,147,11.0,12.0,57,0.00,,,0.00,923,Wunderground v.1.15,2013-04-14 18:25:00,
2013-04-14 13:27:00,75.3,59.5,29.59,SSE,151,10.0,12.0,58,0.00,,,0.00,918,Wunderground v.1.15,2013-04-14 18:27:00,
2013-04-14 13:29:00,75.4,59.1,29.59,SE,131,9.0,13.0,57,0.00,,,0.00,914,Wunderground v.1.15,2013-04-14 18:29:00,
2013-04-14 13:32:00,75.3,59.0,29.59,SSW,195,9.0,10.0,57,0.00,,,0.00,923,Wunderground v.1.15,2013-04-14 18:32:00,
2013-04-14 13:33:00,75.5,59.2,29.59,SSW,200,9.0,10.0,57,0.00,,,0.00,928,Wunderground v.1.15,2013-04-14 18:33:00,
2013-04-14 13:34:00,75.7,59.4,29.59,SSE,148,8.0,10.0,57,0.00,,,0.00,928,Wunderground v.1.15,2013-04-14 18:34:00,
2013-04-14 13:38:00,75.9,59.1,29.58,SSE,154,8.0,10.0,56,0.00,,,0.00,937,Wunderground v.1.15,2013-04-14 18:38:00,
2013-04-14 13:40:00,76.0,59.7,29.58,SSE,166,7.0,10.0,57,0.00,,,0.00,919,Wunderground v.1.15,2013-04-14 18:40:00,
2013-04-14 13:41:00,76.1,59.8,29.58,South,188,7.0,8.0,57,0.00,,,0.00,919,Wunderground v.1.15,2013-04-14 18:41:00,
2013-04-14 13:45:00,76.9,59.5,29.58,WSW,238,6.0,8.0,55,0.00,,,0.00,926,Wunderground v.1.15,2013-04-14 18:45:00,
2013-04-14 13:47:00,77.1,59.7,29.58,SSW,206,6.0,8.0,55,0.00,,,0.00,925,Wunderground v.1.15,2013-04-14 18:47:00,
2013-04-14 13:50:00,77.7,59.7,29.58,SSE,153,5.0,8.0,54,0.00,,,0.00,925,Wunderground v.1.15,2013-04-14 18:50:00,
2013-04-14 13:52:00,77.8,59.8,29.58,WSW,242,5.0,9.0,54,0.00,,,0.00,921,Wunderground v.1.15,2013-04-14 18:52:00,
2013-04-14 13:54:00,77.8,59.8,29.58,West,265,5.0,9.0,54,0.00,,,0.00,912,Wunderground v.1.15,2013-04-14 18:54:00,
2013-04-14 13:55:00,77.7,59.7,29.58,SE,145,5.0,9.0,54,0.00,,,0.00,918,Wunderground v.1.15,2013-04-14 18:55:00,
2013-04-14 13:59:00,76.8,59.9,29.58,SSE,152,7.0,18.0,56,0.00,,,0.00,925,Wunderground v.1.15,2013-04-14 18:59:00,
2013-04-14 14:01:00,76.9,60.0,29.58,WSW,242,7.0,7.0,56,0.00,,,0.00,925,Wunderground v.1.15,2013-04-14 19:01:00,
2013-04-14 14:02:00,77.1,59.7,29.58,SSE,151,7.0,11.0,55,0.00,,,0.00,916,Wunderground v.1.15,2013-04-14 19:02:00,
2013-04-14 14:05:00,76.8,59.4,29.58,SSE,166,8.0,11.0,55,0.00,,,0.00,907,Wunderground v.1.15,2013-04-14 19:05:00,
2013-04-14 14:07:00,76.8,59.9,29.58,SSE,165,8.0,11.0,56,0.00,,,0.00,932,Wunderground v.1.15,2013-04-14 19:07:00,
2013-04-14 14:08:00,76.7,59.3,29.58,SSE,161,8.0,11.0,55,0.00,,,0.00,923,Wunderground v.1.15,2013-04-14 19:08:00,
2013-04-14 14:13:00,76.6,59.7,29.58,South,182,9.0,15.0,56,0.00,,,0.00,912,Wunderground v.1.15,2013-04-14 19:13:00,
2013-04-14 14:15:00,77.0,60.1,29.57,South,173,8.0,15.0,56,0.00,,,0.00,912,Wunderground v.1.15,2013-04-14 19:15:00,
2013-04-14 14:17:00,77.2,60.8,29.57,ESE,123,7.0,15.0,57,0.00,,,0.00,891,Wunderground v.1.15,2013-04-14 19:17:00,
2013-04-14 14:20:00,77.0,59.6,29.57,SSE,160,7.0,15.0,55,0.00,,,0.00,911,Wunderground v.1.15,2013-04-14 19:20:00,
2013-04-14 14:22:00,76.8,59.9,29.57,SSE,149,8.0,9.0,56,0.00,,,0.00,911,Wunderground v.1.15,2013-04-14 19:22:00,
2013-04-14 14:24:00,76.9,60.5,29.57,WSW,254,8.0,9.0,57,0.00,,,0.00,914,Wunderground v.1.15,2013-04-14 19:24:00,
2013-04-14 14:25:00,77.1,60.2,29.57,SSE,149,8.0,9.0,56,0.00,,,0.00,905,Wunderground v.1.15,2013-04-14 19:25:00,
2013-04-14 14:27:00,77.4,60.5,29.57,South,171,8.0,9.0,56,0.00,,,0.00,904,Wunderground v.1.15,2013-04-14 19:27:00,
2013-04-14 14:31:00,77.5,60.6,29.57,South,191,7.0,7.0,56,0.00,,,0.00,893,Wunderground v.1.15,2013-04-14 19:31:00,
2013-04-14 14:32:00,77.6,60.7,29.57,SSE,168,7.0,12.0,56,0.00,,,0.00,888,Wunderground v.1.15,2013-04-14 19:32:00,
2013-04-14 14:34:00,77.3,60.4,29.57,SSE,163,8.0,12.0,56,0.00,,,0.00,912,Wunderground v.1.15,2013-04-14 19:34:00,
2013-04-14 14:36:00,77.3,60.4,29.57,SSE,150,8.0,15.0,56,0.00,,,0.00,923,Wunderground v.1.15,2013-04-14 19:36:00,
2013-04-14 14:37:00,77.3,60.4,29.57,SSE,152,9.0,15.0,56,0.00,,,0.00,904,Wunderground v.1.15,2013-04-14 19:37:00,
2013-04-14 14:38:00,77.3,60.4,29.57,SSE,153,9.0,15.0,56,0.00,,,0.00,896,Wunderground v.1.15,2013-04-14 19:38:00,
2013-04-14 14:43:00,77.6,60.7,29.57,SE,131,8.0,9.0,56,0.00,,,0.00,896,Wunderground v.1.15,2013-04-14 19:43:00,
2013-04-14 14:44:00,77.7,60.8,29.57,South,181,7.0,9.0,56,0.00,,,0.00,893,Wunderground v.1.15,2013-04-14 19:44:00,
2013-04-14 14:47:00,78.0,60.5,29.56,West,269,7.0,9.0,55,0.00,,,0.00,882,Wunderground v.1.15,2013-04-14 19:47:00,
2013-04-14 14:48:00,78.1,60.6,29.56,South,188,6.0,9.0,55,0.00,,,0.00,888,Wunderground v.1.15,2013-04-14 19:48:00,
2013-04-14 14:49:00,78.2,60.7,29.56,West,259,6.0,11.0,55,0.00,,,0.00,902,Wunderground v.1.15,2013-04-14 19:49:00,
2013-04-14 14:53:00,78.4,60.4,29.56,SE,144,6.0,17.0,54,0.00,,,0.00,904,Wunderground v.1.15,2013-04-14 19:53:00,
2013-04-14 14:55:00,77.8,60.3,29.56,SE,134,7.0,17.0,55,0.00,,,0.00,904,Wunderground v.1.15,2013-04-14 19:55:00,
2013-04-14 14:58:00,77.6,60.7,29.56,SE,145,8.0,17.0,56,0.00,,,0.00,831,Wunderground v.1.15,2013-04-14 19:58:00,
2013-04-14 14:59:00,77.7,60.8,29.56,SE,142,8.0,17.0,56,0.00,,,0.00,921,Wunderground v.1.15,2013-04-14 19:59:00,
2013-04-14 15:01:00,78.1,61.6,29.56,SE,143,8.0,8.0,57,0.00,,,0.00,919,Wunderground v.1.15,2013-04-14 20:01:00,
2013-04-14 15:03:00,78.5,61.5,29.56,SW,214,8.0,8.0,56,0.00,,,0.00,895,Wunderground v.1.15,2013-04-14 20:03:00,
2013-04-14 15:04:00,78.7,61.2,29.56,SSW,199,7.0,8.0,55,0.00,,,0.00,877,Wunderground v.1.15,2013-04-14 20:04:00,
2013-04-14 15:08:00,79.4,60.8,29.56,SSE,150,6.0,16.0,53,0.00,,,0.00,879,Wunderground v.1.15,2013-04-14 20:08:00,
2013-04-14 15:10:00,79.3,60.7,29.55,SSE,157,6.0,16.0,53,0.00,,,0.00,867,Wunderground v.1.15,2013-04-14 20:10:00,
2013-04-14 15:12:00,79.2,61.1,29.55,WSW,257,6.0,8.0,54,0.00,,,0.00,854,Wunderground v.1.15,2013-04-14 20:12:00,
2013-04-14 15:13:00,79.3,61.2,29.55,SSE,159,6.0,8.0,54,0.00,,,0.00,853,Wunderground v.1.15,2013-04-14 20:13:00,
2013-04-14 15:14:00,79.3,61.2,29.55,SSE,147,6.0,8.0,54,0.00,,,0.00,865,Wunderground v.1.15,2013-04-14 20:14:00,
2013-04-14 15:18:00,79.1,61.0,29.55,SE,144,8.0,13.0,54,0.00,,,0.00,844,Wunderground v.1.15,2013-04-14 20:18:00,
2013-04-14 15:19:00,79.2,61.1,29.55,SSE,154,7.0,13.0,54,0.00,,,0.00,846,Wunderground v.1.15,2013-04-14 20:19:00,
2013-04-14 15:24:00,79.5,61.4,29.55,South,183,7.0,13.0,54,0.00,,,0.00,851,Wunderground v.1.15,2013-04-14 20:24:00,
2013-04-14 15:25:00,79.5,61.4,29.55,South,169,7.0,13.0,54,0.00,,,0.00,849,Wunderground v.1.15,2013-04-14 20:25:00,
2013-04-14 15:31:00,80.3,61.1,29.55,West,273,5.0,7.0,52,0.00,,,0.00,816,Wunderground v.1.15,2013-04-14 20:31:00,
2013-04-14 15:32:00,80.4,61.2,29.55,SSE,151,5.0,7.0,52,0.00,,,0.00,819,Wunderground v.1.15,2013-04-14 20:32:00,
2013-04-14 15:33:00,80.5,61.3,29.55,South,186,6.0,11.0,52,0.00,,,0.00,816,Wunderground v.1.15,2013-04-14 20:33:00,
2013-04-14 15:37:00,80.3,61.6,29.54,South,171,6.0,11.0,53,0.00,,,0.00,817,Wunderground v.1.15,2013-04-14 20:37:00,
2013-04-14 15:38:00,80.3,61.6,29.54,SSE,157,7.0,11.0,53,0.00,,,0.00,802,Wunderground v.1.15,2013-04-14 20:38:00,
2013-04-14 15:40:00,80.1,61.4,29.54,SSE,163,7.0,11.0,53,0.00,,,0.00,780,Wunderground v.1.15,2013-04-14 20:40:00,
2013-04-14 15:43:00,80.0,60.8,29.54,South,182,8.0,13.0,52,0.00,,,0.00,789,Wunderground v.1.15,2013-04-14 20:43:00,
2013-04-14 15:45:00,80.0,61.3,29.54,SW,228,8.0,13.0,53,0.00,,,0.00,784,Wunderground v.1.15,2013-04-14 20:45:00,
2013-04-14 15:48:00,80.5,61.8,29.54,SW,221,7.0,13.0,53,0.00,,,0.00,779,Wunderground v.1.15,2013-04-14 20:48:00,
2013-04-14 15:49:00,80.7,61.4,29.54,SSE,167,7.0,13.0,52,0.00,,,0.00,779,Wunderground v.1.15,2013-04-14 20:49:00,
2013-04-14 15:52:00,80.8,61.5,29.54,SW,233,6.0,6.0,52,0.00,,,0.00,775,Wunderground v.1.15,2013-04-14 20:52:00,
2013-04-14 15:53:00,80.9,61.6,29.54,SW,225,5.0,6.0,52,0.00,,,0.00,766,Wunderground v.1.15,2013-04-14 20:53:00,
2013-04-14 15:55:00,80.7,61.4,29.53,South,181,5.0,6.0,52,0.00,,,0.00,731,Wunderground v.1.15,2013-04-14 20:55:00,
2013-04-14 15:57:00,80.6,61.3,29.54,SE,136,6.0,13.0,52,0.00,,,0.00,756,Wunderground v.1.15,2013-04-14 20:57:00,
2013-04-14 15:59:00,80.5,61.8,29.53,South,172,6.0,13.0,53,0.00,,,0.00,751,Wunderground v.1.15,2013-04-14 20:59:00,
2013-04-14 16:01:00,80.2,61.5,29.53,SSE,157,7.0,8.0,53,0.00,,,0.00,747,Wunderground v.1.15,2013-04-14 21:01:00,
2013-04-14 16:03:00,80.2,61.5,29.53,SE,146,7.0,8.0,53,0.00,,,0.00,738,Wunderground v.1.15,2013-04-14 21:03:00,
2013-04-14 16:07:00,80.0,61.3,29.53,ESE,122,9.0,18.0,53,0.00,,,0.00,722,Wunderground v.1.15,2013-04-14 21:07:00,
2013-04-14 16:08:00,79.9,61.8,29.52,SE,139,9.0,18.0,54,0.00,,,0.00,722,Wunderground v.1.15,2013-04-14 21:08:00,
2013-04-14 16:09:00,79.8,61.7,29.53,SSE,156,10.0,18.0,54,0.00,,,0.00,721,Wunderground v.1.15,2013-04-14 21:09:00,
2013-04-14 16:11:00,79.9,61.8,29.52,SSE,163,10.0,10.0,54,0.00,,,0.00,719,Wunderground v.1.15,2013-04-14 21:11:00,
2013-04-14 16:14:00,80.0,61.9,29.52,South,185,11.0,15.0,54,0.00,,,0.00,691,Wunderground v.1.15,2013-04-14 21:14:00,
2013-04-14 16:15:00,80.0,61.9,29.52,SSE,150,11.0,15.0,54,0.00,,,0.00,707,Wunderground v.1.15,2013-04-14 21:15:00,
2013-04-14 16:20:00,80.4,62.2,29.52,SSE,167,9.0,9.0,54,0.00,,,0.00,689,Wunderground v.1.15,2013-04-14 21:20:00,
2013-04-14 16:22:00,80.7,62.5,29.52,SE,138,8.0,15.0,54,0.00,,,0.00,675,Wunderground v.1.15,2013-04-14 21:22:00,
2013-04-14 16:26:00,80.6,62.4,29.52,SSE,154,6.0,15.0,54,0.00,,,0.00,680,Wunderground v.1.15,2013-04-14 21:26:00,
2013-04-14 16:27:00,80.7,62.5,29.53,SE,146,6.0,15.0,54,0.00,,,0.00,666,Wunderground v.1.15,2013-04-14 21:27:00,
2013-04-14 16:29:00,80.7,62.5,29.53,South,173,6.0,15.0,54,0.00,,,0.00,663,Wunderground v.1.15,2013-04-14 21:29:00,
2013-04-14 16:34:00,80.0,61.9,29.53,SSE,148,8.0,13.0,54,0.00,,,0.00,656,Wunderground v.1.15,2013-04-14 21:34:00,
2013-04-14 16:35:00,79.9,62.3,29.53,SSW,208,8.0,13.0,55,0.00,,,0.00,645,Wunderground v.1.15,2013-04-14 21:35:00,
2013-04-14 16:37:00,79.9,61.8,29.53,South,175,9.0,13.0,54,0.00,,,0.00,631,Wunderground v.1.15,2013-04-14 21:37:00,
2013-04-14 16:38:00,79.8,62.2,29.53,South,171,9.0,13.0,55,0.00,,,0.00,640,Wunderground v.1.15,2013-04-14 21:38:00,
2013-04-14 16:43:00,80.0,62.4,29.53,SE,143,8.0,11.0,55,0.00,,,0.00,640,Wunderground v.1.15,2013-04-14 21:43:00,
2013-04-14 16:44:00,80.0,62.9,29.53,SE,132,8.0,11.0,56,0.00,,,0.00,622,Wunderground v.1.15,2013-04-14 21:44:00,
2013-04-14 16:45:00,80.1,63.0,29.53,SE,141,8.0,11.0,56,0.00,,,0.00,626,Wunderground v.1.15,2013-04-14 21:45:00,
2013-04-14 16:47:00,80.0,62.4,29.52,SE,128,8.0,11.0,55,0.00,,,0.00,613,Wunderground v.1.15,2013-04-14 21:47:00,
2013-04-14 16:50:00,79.9,62.8,29.52,SSE,151,9.0,15.0,56,0.00,,,0.00,598,Wunderground v.1.15,2013-04-14 21:50:00,
2013-04-14 16:52:00,79.8,62.7,29.52,SE,138,9.0,15.0,56,0.00,,,0.00,596,Wunderground v.1.15,2013-04-14 21:52:00,
2013-04-14 16:55:00,79.8,62.7,29.52,SSE,149,9.0,15.0,56,0.00,,,0.00,585,Wunderground v.1.15,2013-04-14 21:55:00,
2013-04-14 16:57:00,79.9,63.3,29.52,SSW,194,9.0,15.0,57,0.00,,,0.00,582,Wunderground v.1.15,2013-04-14 21:57:00,
2013-04-14 16:58:00,79.9,62.8,29.52,SE,142,9.0,15.0,56,0.00,,,0.00,577,Wunderground v.1.15,2013-04-14 21:58:00,
2013-04-14 17:02:00,79.5,62.9,29.52,SE,139,10.0,14.0,57,0.00,,,0.00,564,Wunderground v.1.15,2013-04-14 22:02:00,
2013-04-14 17:03:00,79.4,62.8,29.52,SE,142,11.0,14.0,57,0.00,,,0.00,559,Wunderground v.1.15,2013-04-14 22:03:00,
2013-04-14 17:04:00,79.4,62.8,29.52,SE,136,11.0,15.0,57,0.00,,,0.00,557,Wunderground v.1.15,2013-04-14 22:04:00,
2013-04-14 17:09:00,79.7,63.1,29.52,SSE,150,11.0,15.0,57,0.00,,,0.00,534,Wunderground v.1.15,2013-04-14 22:09:00,
2013-04-14 17:10:00,79.7,63.1,29.52,SSE,152,10.0,10.0,57,0.00,,,0.00,533,Wunderground v.1.15,2013-04-14 22:10:00,
2013-04-14 17:11:00,79.7,63.1,29.52,South,171,10.0,10.0,57,0.00,,,0.00,529,Wunderground v.1.15,2013-04-14 22:11:00,
2013-04-14 17:15:00,80.1,63.0,29.52,South,173,7.0,11.0,56,0.00,,,0.00,515,Wunderground v.1.15,2013-04-14 22:15:00,
2013-04-14 17:19:00,80.2,63.1,29.51,ESE,116,8.0,13.0,56,0.00,,,0.00,506,Wunderground v.1.15,2013-04-14 22:19:00,
2013-04-14 17:20:00,80.0,63.4,29.51,SE,135,8.0,11.0,57,0.00,,,0.00,501,Wunderground v.1.15,2013-04-14 22:20:00,
2013-04-14 17:22:00,79.9,63.3,29.51,SSE,150,9.0,11.0,57,0.00,,,0.00,499,Wunderground v.1.15,2013-04-14 22:22:00,
2013-04-14 17:26:00,79.6,63.0,29.51,SE,140,10.0,12.0,57,0.00,,,0.00,475,Wunderground v.1.15,2013-04-14 22:26:00,
2013-04-14 17:27:00,79.4,62.8,29.51,SE,139,10.0,12.0,57,0.00,,,0.00,476,Wunderground v.1.15,2013-04-14 22:27:00,
2013-04-14 17:30:00,79.0,63.4,29.51,SE,144,12.0,12.0,59,0.00,,,0.00,459,Wunderground v.1.15,2013-04-14 22:30:00,
2013-04-14 17:32:00,79.1,63.5,29.52,SE,140,12.0,14.0,59,0.00,,,0.00,455,Wunderground v.1.15,2013-04-14 22:32:00,
2013-04-14 17:34:00,79.2,63.6,29.52,SE,136,12.0,14.0,59,0.00,,,0.00,454,Wunderground v.1.15,2013-04-14 22:34:00,
2013-04-14 17:35:00,79.3,63.7,29.51,SSE,148,11.0,14.0,59,0.00,,,0.00,448,Wunderground v.1.15,2013-04-14 22:35:00,
2013-04-14 17:37:00,79.2,63.1,29.51,SE,139,11.0,14.0,58,0.00,,,0.00,443,Wunderground v.1.15,2013-04-14 22:37:00,
2013-04-14 17:40:00,79.1,63.5,29.51,SE,133,11.0,11.0,59,0.00,,,0.00,429,Wunderground v.1.15,2013-04-14 22:40:00,
2013-04-14 17:42:00,79.1,63.5,29.51,SSE,148,11.0,15.0,59,0.00,,,0.00,427,Wunderground v.1.15,2013-04-14 22:42:00,
2013-04-14 17:43:00,79.0,63.4,29.51,SE,141,11.0,17.0,59,0.00,,,0.00,424,Wunderground v.1.15,2013-04-14 22:43:00,
2013-04-14 17:47:00,79.1,63.5,29.51,SE,143,11.0,17.0,59,0.00,,,0.00,406,Wunderground v.1.15,2013-04-14 22:47:00,
2013-04-14 17:48:00,79.1,63.5,29.51,SE,138,11.0,17.0,59,0.00,,,0.00,406,Wunderground v.1.15,2013-04-14 22:48:00,
2013-04-14 17:52:00,78.8,63.7,29.51,SE,142,11.0,13.0,60,0.00,,,0.00,387,Wunderground v.1.15,2013-04-14 22:52:00,
2013-04-14 17:53:00,78.8,63.7,29.51,SE,134,11.0,13.0,60,0.00,,,0.00,385,Wunderground v.1.15,2013-04-14 22:53:00,
2013-04-14 17:55:00,78.7,63.6,29.51,SSE,147,11.0,17.0,60,0.00,,,0.00,376,Wunderground v.1.15,2013-04-14 22:55:00,
2013-04-14 17:58:00,78.6,63.6,29.51,ESE,121,11.0,17.0,60,0.00,,,0.00,367,Wunderground v.1.15,2013-04-14 22:58:00,
2013-04-14 17:59:00,78.5,63.5,29.51,SE,129,12.0,17.0,60,0.00,,,0.00,362,Wunderground v.1.15,2013-04-14 22:59:00,
2013-04-14 18:05:00,78.4,63.8,29.52,SSE,151,13.0,18.0,61,0.00,,,0.00,339,Wunderground v.1.15,2013-04-14 23:05:00,
2013-04-14 18:07:00,78.4,63.8,29.51,SSE,153,13.0,21.0,61,0.00,,,0.00,338,Wunderground v.1.15,2013-04-14 23:07:00,
2013-04-14 18:08:00,78.4,63.8,29.51,SE,134,13.0,21.0,61,0.00,,,0.00,325,Wunderground v.1.15,2013-04-14 23:08:00,
2013-04-14 18:11:00,78.5,63.5,29.51,SSE,158,12.0,12.0,60,0.00,,,0.00,316,Wunderground v.1.15,2013-04-14 23:11:00,
2013-04-14 18:12:00,78.5,63.5,29.51,South,176,12.0,12.0,60,0.00,,,0.00,311,Wunderground v.1.15,2013-04-14 23:12:00,
2013-04-14 18:13:00,78.4,63.4,29.52,SSE,149,11.0,12.0,60,0.00,,,0.00,308,Wunderground v.1.15,2013-04-14 23:13:00,
2013-04-14 18:17:00,78.3,63.7,29.52,SE,144,11.0,14.0,61,0.00,,,0.00,301,Wunderground v.1.15,2013-04-14 23:17:00,
2013-04-14 18:19:00,78.1,63.6,29.52,SE,130,11.0,14.0,61,0.00,,,0.00,290,Wunderground v.1.15,2013-04-14 23:19:00,
2013-04-14 18:22:00,78.0,63.9,29.52,SE,142,11.0,11.0,62,0.00,,,0.00,287,Wunderground v.1.15,2013-04-14 23:22:00,
2013-04-14 18:24:00,77.9,63.8,29.52,SE,127,11.0,11.0,62,0.00,,,0.00,274,Wunderground v.1.15,2013-04-14 23:24:00,
2013-04-14 18:25:00,77.9,63.8,29.52,SE,133,11.0,11.0,62,0.00,,,0.00,269,Wunderground v.1.15,2013-04-14 23:25:00,
2013-04-14 18:29:00,77.9,63.8,29.52,SE,140,10.0,12.0,62,0.00,,,0.00,260,Wunderground v.1.15,2013-04-14 23:29:00,
2013-04-14 18:31:00,77.8,63.7,29.52,SE,129,10.0,12.0,62,0.00,,,0.00,248,Wunderground v.1.15,2013-04-14 23:31:00,
2013-04-14 18:34:00,77.7,64.1,29.52,SE,138,11.0,19.0,63,0.00,,,0.00,234,Wunderground v.1.15,2013-04-14 23:34:00,
2013-04-14 18:35:00,77.6,64.0,29.52,SE,133,11.0,19.0,63,0.00,,,0.00,230,Wunderground v.1.15,2013-04-14 23:35:00,
2013-04-14 18:37:00,77.5,63.9,29.52,SSE,165,11.0,19.0,63,0.00,,,0.00,225,Wunderground v.1.15,2013-04-14 23:37:00,
2013-04-14 18:39:00,77.5,63.9,29.52,SSE,167,11.0,19.0,63,0.00,,,0.00,220,Wunderground v.1.15,2013-04-14 23:39:00,
2013-04-14 18:40:00,77.5,63.9,29.52,SSE,150,11.0,19.0,63,0.00,,,0.00,216,Wunderground v.1.15,2013-04-14 23:40:00,
2013-04-14 18:42:00,77.5,63.9,29.52,ESE,123,11.0,11.0,63,0.00,,,0.00,213,Wunderground v.1.15,2013-04-14 23:42:00,
2013-04-14 18:45:00,77.5,64.4,29.52,SSE,152,9.0,11.0,64,0.00,,,0.00,195,Wunderground v.1.15,2013-04-14 23:45:00,
2013-04-14 18:47:00,77.5,63.9,29.52,SE,146,9.0,11.0,63,0.00,,,0.00,188,Wunderground v.1.15,2013-04-14 23:47:00,
2013-04-14 18:49:00,77.5,63.9,29.52,SSE,167,9.0,11.0,63,0.00,,,0.00,179,Wunderground v.1.15,2013-04-14 23:49:00,
2013-04-14 18:50:00,77.5,63.9,29.52,SE,135,9.0,11.0,63,0.00,,,0.00,176,Wunderground v.1.15,2013-04-14 23:50:00,
2013-04-14 18:54:00,77.3,64.2,29.52,South,174,9.0,9.0,64,0.00,,,0.00,156,Wunderground v.1.15,2013-04-14 23:54:00,
2013-04-14 18:55:00,77.3,64.2,29.52,SE,141,9.0,11.0,64,0.00,,,0.00,155,Wunderground v.1.15,2013-04-14 23:55:00,
2013-04-14 18:59:00,77.1,64.0,29.52,ESE,107,9.0,11.0,64,0.00,,,0.00,142,Wunderground v.1.15,2013-04-14 23:59:00,
2013-04-14 19:01:00,77.1,64.0,29.52,SE,128,9.0,9.0,64,0.00,,,0.00,135,Wunderground v.1.15,2013-04-15 00:01:00,
2013-04-14 19:03:00,77.0,63.9,29.52,SSE,150,8.0,13.0,64,0.00,,,0.00,128,Wunderground v.1.15,2013-04-15 00:03:00,
2013-04-14 19:08:00,76.9,64.2,29.52,South,169,8.0,13.0,65,0.00,,,0.00,109,Wunderground v.1.15,2013-04-15 00:08:00,
2013-04-14 19:10:00,76.9,64.2,29.52,South,173,7.0,13.0,65,0.00,,,0.00,98,Wunderground v.1.15,2013-04-15 00:10:00,
2013-04-14 19:12:00,76.9,64.2,29.52,SE,136,8.0,8.0,65,0.00,,,0.00,93,Wunderground v.1.15,2013-04-15 00:12:00,
2013-04-14 19:14:00,76.8,64.1,29.52,SSE,149,7.0,10.0,65,0.00,,,0.00,86,Wunderground v.1.15,2013-04-15 00:14:00,
2013-04-14 19:16:00,76.7,64.0,29.52,SE,125,7.0,10.0,65,0.00,,,0.00,81,Wunderground v.1.15,2013-04-15 00:16:00,
2013-04-14 19:18:00,76.6,64.0,29.52,SE,144,8.0,13.0,65,0.00,,,0.00,74,Wunderground v.1.15,2013-04-15 00:18:00,
2013-04-14 19:19:00,76.5,63.9,29.52,SE,146,8.0,13.0,65,0.00,,,0.00,70,Wunderground v.1.15,2013-04-15 00:19:00,
2013-04-14 19:20:00,76.5,64.3,29.52,SE,144,8.0,13.0,66,0.00,,,0.00,69,Wunderground v.1.15,2013-04-15 00:20:00,
2013-04-14 19:23:00,76.4,64.2,29.52,SSE,160,9.0,13.0,66,0.00,,,0.00,62,Wunderground v.1.15,2013-04-15 00:23:00,
2013-04-14 19:27:00,76.2,64.0,29.52,SE,137,10.0,15.0,66,0.00,,,0.00,51,Wunderground v.1.15,2013-04-15 00:27:00,
2013-04-14 19:30:00,76.2,64.4,29.52,SSE,150,10.0,15.0,67,0.00,,,0.00,42,Wunderground v.1.15,2013-04-15 00:30:00,
2013-04-14 19:32:00,76.1,64.3,29.53,SSE,150,10.0,13.0,67,0.00,,,0.00,39,Wunderground v.1.15,2013-04-15 00:32:00,
2013-04-14 19:33:00,76.1,64.3,29.53,SSE,160,10.0,13.0,67,0.00,,,0.00,37,Wunderground v.1.15,2013-04-15 00:33:00,
2013-04-14 19:38:00,76.0,64.2,29.53,SE,145,10.0,14.0,67,0.00,,,0.00,26,Wunderground v.1.15,2013-04-15 00:38:00,
2013-04-14 19:40:00,75.9,64.2,29.53,SE,140,10.0,14.0,67,0.00,,,0.00,21,Wunderground v.1.15,2013-04-15 00:40:00,
2013-04-14 19:42:00,75.9,64.2,29.53,SSE,163,10.0,12.0,67,0.00,,,0.00,19,Wunderground v.1.15,2013-04-15 00:42:00,
2013-04-14 19:43:00,75.9,64.2,29.53,SSE,153,10.0,12.0,67,0.00,,,0.00,18,Wunderground v.1.15,2013-04-15 00:43:00,
2013-04-14 19:48:00,75.8,64.1,29.53,SE,138,9.0,12.0,67,0.00,,,0.00,12,Wunderground v.1.15,2013-04-15 00:48:00,
2013-04-14 19:49:00,75.8,64.1,29.53,SSE,157,9.0,12.0,67,0.00,,,0.00,11,Wunderground v.1.15,2013-04-15 00:49:00,
2013-04-14 19:54:00,75.6,63.9,29.53,SE,137,9.0,11.0,67,0.00,,,0.00,7,Wunderground v.1.15,2013-04-15 00:54:00,
2013-04-14 19:56:00,75.6,63.9,29.53,SSE,165,9.0,11.0,67,0.00,,,0.00,5,Wunderground v.1.15,2013-04-15 00:56:00,
2013-04-14 19:57:00,75.6,63.9,29.53,SSE,152,10.0,11.0,67,0.00,,,0.00,5,Wunderground v.1.15,2013-04-15 00:57:00,
2013-04-14 19:59:00,75.6,63.9,29.53,SE,146,10.0,11.0,67,0.00,,,0.00,0,Wunderground v.1.15,2013-04-15 00:59:00,
2013-04-14 20:02:00,75.5,63.8,29.53,SSE,159,11.0,13.0,67,0.00,,,0.00,0,Wunderground v.1.15,2013-04-15 01:02:00,
2013-04-14 20:04:00,75.5,63.8,29.53,SE,133,11.0,13.0,67,0.00,,,0.00,0,Wunderground v.1.15,2013-04-15 01:04:00,
2013-04-14 20:06:00,75.4,64.1,29.53,SE,134,10.0,13.0,68,0.00,,,0.00,0,Wunderground v.1.15,2013-04-15 01:06:00,
2013-04-14 20:08:00,75.4,64.1,29.53,SE,131,10.0,13.0,68,0.00,,,0.00,0,Wunderground v.1.15,2013-04-15 01:08:00,
2013-04-14 20:09:00,75.4,64.1,29.54,South,186,10.0,13.0,68,0.00,,,0.00,0,Wunderground v.1.15,2013-04-15 01:09:00,
2013-04-14 20:12:00,75.3,64.0,29.54,SSE,157,10.0,10.0,68,0.00,,,0.00,0,Wunderground v.1.15,2013-04-15 01:12:00,
2013-04-14 20:13:00,75.3,64.0,29.54,SSE,163,9.0,10.0,68,0.00,,,0.00,0,Wunderground v.1.15,2013-04-15 01:13:00,
2013-04-14 20:15:00,75.3,64.0,29.54,SE,135,9.0,10.0,68,0.00,,,0.00,0,Wunderground v.1.15,2013-04-15 01:15:00,
2013-04-14 20:16:00,75.3,64.0,29.54,SSE,158,9.0,10.0,68,0.00,,,0.00,0,Wunderground v.1.15,2013-04-15 01:16:00,
2013-04-14 20:19:00,75.2,63.9,29.54,SSE,156,8.0,10.0,68,0.00,,,0.00,0,Wunderground v.1.15,2013-04-15 01:19:00,
2013-04-14 20:20:00,75.1,63.8,29.54,SE,134,8.0,11.0,68,0.00,,,0.00,0,Wunderground v.1.15,2013-04-15 01:20:00,
2013-04-14 20:22:00,75.1,63.8,29.54,SE,142,8.0,11.0,68,0.00,,,0.00,0,Wunderground v.1.15,2013-04-15 01:22:00,
2013-04-14 20:24:00,75.0,63.7,29.54,SE,125,7.0,13.0,68,0.00,,,0.00,0,Wunderground v.1.15,2013-04-15 01:24:00,
2013-04-14 20:26:00,75.0,63.7,29.54,ESE,104,8.0,13.0,68,0.00,,,0.00,0,Wunderground v.1.15,2013-04-15 01:26:00,
2013-04-14 20:28:00,74.9,64.0,29.54,SE,143,8.0,13.0,69,0.00,,,0.00,0,Wunderground v.1.15,2013-04-15 01:28:00,
2013-04-14 20:30:00,74.8,63.9,29.54,SE,126,9.0,13.0,69,0.00,,,0.00,0,Wunderground v.1.15,2013-04-15 01:30:00,
2013-04-14 20:31:00,74.8,63.9,29.54,SE,130,8.0,10.0,69,0.00,,,0.00,0,Wunderground v.1.15,2013-04-15 01:31:00,
2013-04-14 20:35:00,74.7,63.9,29.54,SE,135,9.0,10.0,69,0.00,,,0.00,0,Wunderground v.1.15,2013-04-15 01:35:00,
2013-04-14 20:36:00,74.7,63.9,29.54,SSE,152,9.0,10.0,69,0.00,,,0.00,0,Wunderground v.1.15,2013-04-15 01:36:00,
2013-04-14 20:37:00,74.6,63.8,29.54,SSE,152,9.0,10.0,69,0.00,,,0.00,0,Wunderground v.1.15,2013-04-15 01:37:00,
2013-04-14 20:40:00,74.6,63.8,29.54,SSE,156,9.0,12.0,69,0.00,,,0.00,0,Wunderground v.1.15,2013-04-15 01:40:00,
2013-04-14 20:41:00,74.6,63.8,29.54,SSE,167,9.0,9.0,69,0.00,,,0.00,0,Wunderground v.1.15,2013-04-15 01:41:00,
2013-04-14 20:42:00,74.6,63.8,29.54,SE,144,9.0,9.0,69,0.00,,,0.00,0,Wunderground v.1.15,2013-04-15 01:42:00,
2013-04-14 20:44:00,74.6,63.8,29.54,SSE,148,9.0,9.0,69,0.00,,,0.00,0,Wunderground v.1.15,2013-04-15 01:44:00,
2013-04-14 20:46:00,74.5,63.7,29.54,SSE,157,9.0,12.0,69,0.00,,,0.00,0,Wunderground v.1.15,2013-04-15 01:46:00,
2013-04-14 20:48:00,74.5,63.7,29.54,SE,144,9.0,12.0,69,0.00,,,0.00,0,Wunderground v.1.15,2013-04-15 01:48:00,
2013-04-14 20:51:00,74.4,64.0,29.55,SE,145,8.0,12.0,70,0.00,,,0.00,0,Wunderground v.1.15,2013-04-15 01:51:00,
2013-04-14 20:55:00,74.3,63.9,29.55,SSE,165,8.0,12.0,70,0.00,,,0.00,0,Wunderground v.1.15,2013-04-15 01:55:00,
2013-04-14 20:56:00,74.4,63.6,29.55,SSE,163,8.0,12.0,69,0.00,,,0.00,0,Wunderground v.1.15,2013-04-15 01:56:00,
2013-04-14 20:59:00,74.3,63.9,29.55,SE,145,8.0,12.0,70,0.00,,,0.00,0,Wunderground v.1.15,2013-04-15 01:59:00,
2013-04-14 21:01:00,74.3,63.9,29.55,SE,140,7.0,7.0,70,0.00,,,0.00,0,Wunderground v.1.15,2013-04-15 02:01:00,
2013-04-14 21:04:00,74.2,63.8,29.55,SE,134,6.0,9.0,70,0.00,,,0.00,0,Wunderground v.1.15,2013-04-15 02:04:00,
2013-04-14 21:05:00,74.2,63.8,29.55,SE,126,6.0,11.0,70,0.00,,,0.00,0,Wunderground v.1.15,2013-04-15 02:05:00,
2013-04-14 21:07:00,74.1,63.7,29.56,SSE,154,7.0,12.0,70,0.00,,,0.00,0,Wunderground v.1.15,2013-04-15 02:07:00,
2013-04-14 21:10:00,74.2,63.8,29.55,SSE,159,7.0,13.0,70,0.00,,,0.00,0,Wunderground v.1.15,2013-04-15 02:10:00,
2013-04-14 21:14:00,74.1,63.7,29.55,SE,142,8.0,12.0,70,0.00,,,0.00,0,Wunderground v.1.15,2013-04-15 02:14:00,
2013-04-14 21:15:00,74.1,63.7,29.56,SE,128,8.0,12.0,70,0.00,,,0.00,0,Wunderground v.1.15,2013-04-15 02:15:00,
2013-04-14 21:17:00,74.1,63.7,29.56,SSE,159,9.0,12.0,70,0.00,,,0.00,0,Wunderground v.1.15,2013-04-15 02:17:00,
2013-04-14 21:20:00,74.1,63.7,29.56,SE,130,9.0,12.0,70,0.00,,,0.00,0,Wunderground v.1.15,2013-04-15 02:20:00,
2013-04-14 21:23:00,74.0,63.6,29.56,SE,142,9.0,10.0,70,0.00,,,0.00,0,Wunderground v.1.15,2013-04-15 02:23:00,
2013-04-14 21:25:00,74.0,63.6,29.56,SE,124,9.0,10.0,70,0.00,,,0.00,0,Wunderground v.1.15,2013-04-15 02:25:00,
2013-04-14 21:28:00,73.9,63.5,29.56,SE,146,8.0,11.0,70,0.00,,,0.00,0,Wunderground v.1.15,2013-04-15 02:28:00,
2013-04-14 21:30:00,73.9,63.5,29.56,SE,134,8.0,11.0,70,0.00,,,0.00,0,Wunderground v.1.15,2013-04-15 02:30:00,
2013-04-14 21:33:00,73.8,63.4,29.56,SE,132,8.0,8.0,70,0.00,,,0.00,0,Wunderground v.1.15,2013-04-15 02:33:00,
2013-04-14 21:38:00,74.0,63.6,29.56,SE,146,9.0,12.0,70,0.00,,,0.00,0,Wunderground v.1.15,2013-04-15 02:38:00,
2013-04-14 21:40:00,74.0,63.6,29.56,SSE,153,10.0,12.0,70,0.00,,,0.00,0,Wunderground v.1.15,2013-04-15 02:40:00,
2013-04-14 21:42:00,73.9,63.5,29.56,SE,136,10.0,10.0,70,0.00,,,0.00,0,Wunderground v.1.15,2013-04-15 02:42:00,
2013-04-14 21:43:00,73.9,63.5,29.56,SE,134,10.0,10.0,70,0.00,,,0.00,0,Wunderground v.1.15,2013-04-15 02:43:00,
2013-04-14 21:45:00,73.8,63.4,29.57,SE,143,10.0,11.0,70,0.00,,,0.00,0,Wunderground v.1.15,2013-04-15 02:45:00,
2013-04-14 21:48:00,73.8,63.4,29.56,SE,140,9.0,11.0,70,0.00,,,0.00,0,Wunderground v.1.15,2013-04-15 02:48:00,
2013-04-14 21:50:00,73.7,63.3,29.57,SSE,153,9.0,11.0,70,0.00,,,0.00,0,Wunderground v.1.15,2013-04-15 02:50:00,
2013-04-14 21:51:00,73.7,63.3,29.57,SSE,161,8.0,8.0,70,0.00,,,0.00,0,Wunderground v.1.15,2013-04-15 02:51:00,
2013-04-14 21:54:00,73.6,63.6,29.57,SE,136,8.0,8.0,71,0.00,,,0.00,0,Wunderground v.1.15,2013-04-15 02:54:00,
2013-04-14 21:56:00,73.5,63.5,29.57,SE,143,7.0,8.0,71,0.00,,,0.00,0,Wunderground v.1.15,2013-04-15 02:56:00,
2013-04-14 21:58:00,73.5,63.5,29.57,SE,128,7.0,11.0,71,0.00,,,0.00,0,Wunderground v.1.15,2013-04-15 02:58:00,
2013-04-14 22:01:00,73.4,63.4,29.57,SE,146,7.0,7.0,71,0.00,,,0.00,0,Wunderground v.1.15,2013-04-15 03:01:00,
2013-04-14 22:02:00,73.4,63.4,29.57,ESE,117,7.0,9.0,71,0.00,,,0.00,0,Wunderground v.1.15,2013-04-15 03:02:00,
2013-04-14 22:05:00,73.3,63.7,29.57,SE,140,8.0,9.0,72,0.00,,,0.00,0,Wunderground v.1.15,2013-04-15 03:05:00,
2013-04-14 22:06:00,73.3,63.3,29.57,SE,138,8.0,9.0,71,0.00,,,0.00,0,Wunderground v.1.15,2013-04-15 03:06:00,
2013-04-14 22:08:00,73.3,63.7,29.57,SE,134,8.0,13.0,72,0.00,,,0.00,0,Wunderground v.1.15,2013-04-15 03:08:00,
2013-04-14 22:09:00,73.3,63.7,29.58,SE,138,8.0,13.0,72,0.00,,,0.00,0,Wunderground v.1.15,2013-04-15 03:09:00,
2013-04-14 22:12:00,73.2,63.6,29.57,SE,141,8.0,10.0,72,0.00,,,0.00,0,Wunderground v.1.15,2013-04-15 03:12:00,
2013-04-14 22:13:00,73.2,63.6,29.58,SE,142,8.0,10.0,72,0.00,,,0.00,0,Wunderground v.1.15,2013-04-15 03:13:00,
2013-04-14 22:17:00,73.1,63.5,29.58,SE,136,7.0,10.0,72,0.00,,,0.00,0,Wunderground v.1.15,2013-04-15 03:17:00,
2013-04-14 22:18:00,73.1,63.5,29.57,SE,132,7.0,10.0,72,0.00,,,0.00,0,Wunderground v.1.15,2013-04-15 03:18:00,
2013-04-14 22:20:00,73.1,63.5,29.57,SE,141,7.0,10.0,72,0.00,,,0.00,0,Wunderground v.1.15,2013-04-15 03:20:00,
2013-04-14 22:24:00,73.0,63.8,29.57,SE,140,7.0,10.0,73,0.00,,,0.00,0,Wunderground v.1.15,2013-04-15 03:24:00,
2013-04-14 22:25:00,73.0,63.8,29.58,SE,125,7.0,10.0,73,0.00,,,0.00,0,Wunderground v.1.15,2013-04-15 03:25:00,
2013-04-14 22:28:00,72.9,63.7,29.58,SE,134,7.0,10.0,73,0.00,,,0.00,0,Wunderground v.1.15,2013-04-15 03:28:00,
2013-04-14 22:30:00,72.9,63.7,29.58,SE,145,7.0,10.0,73,0.00,,,0.00,0,Wunderground v.1.15,2013-04-15 03:30:00,
2013-04-14 22:32:00,72.9,63.7,29.58,SE,136,7.0,7.0,73,0.00,,,0.00,0,Wunderground v.1.15,2013-04-15 03:32:00,
2013-04-14 22:35:00,72.8,64.0,29.58,SE,127,7.0,11.0,74,0.00,,,0.00,0,Wunderground v.1.15,2013-04-15 03:35:00,
2013-04-14 22:38:00,72.8,64.0,29.58,SE,141,7.0,11.0,74,0.00,,,0.00,0,Wunderground v.1.15,2013-04-15 03:38:00,
2013-04-14 22:39:00,72.8,64.0,29.57,SE,140,7.0,11.0,74,0.00,,,0.00,0,Wunderground v.1.15,2013-04-15 03:39:00,
2013-04-14 22:41:00,72.7,63.9,29.58,SE,127,7.0,11.0,74,0.00,,,0.00,0,Wunderground v.1.15,2013-04-15 03:41:00,
2013-04-14 22:44:00,72.7,63.9,29.58,SSE,150,8.0,11.0,74,0.00,,,0.00,0,Wunderground v.1.15,2013-04-15 03:44:00,
2013-04-14 22:45:00,72.7,63.9,29.58,SSE,150,7.0,11.0,74,0.00,,,0.00,0,Wunderground v.1.15,2013-04-15 03:45:00,
2013-04-14 22:47:00,72.7,63.9,29.58,SE,131,8.0,12.0,74,0.00,,,0.00,0,Wunderground v.1.15,2013-04-15 03:47:00,
2013-04-14 22:50:00,72.7,63.9,29.58,SSE,150,9.0,12.0,74,0.00,,,0.00,0,Wunderground v.1.15,2013-04-15 03:50:00,
2013-04-14 22:52:00,72.7,63.9,29.58,SE,128,9.0,10.0,74,0.00,,,0.00,0,Wunderground v.1.15,2013-04-15 03:52:00,
2013-04-14 22:54:00,72.6,63.8,29.58,SE,138,8.0,10.0,74,0.00,,,0.00,0,Wunderground v.1.15,2013-04-15 03:54:00,
2013-04-14 22:55:00,72.6,63.8,29.58,SSE,153,8.0,10.0,74,0.00,,,0.00,0,Wunderground v.1.15,2013-04-15 03:55:00,
2013-04-14 22:56:00,72.6,63.8,29.58,SE,130,8.0,10.0,74,0.00,,,0.00,0,Wunderground v.1.15,2013-04-15 03:56:00,
2013-04-14 23:01:00,72.6,63.8,29.58,SSE,153,8.0,8.0,74,0.00,,,0.00,0,Wunderground v.1.15,2013-04-15 04:01:00,
2013-04-14 23:03:00,72.5,64.1,29.58,SE,143,8.0,10.0,75,0.00,,,0.00,0,Wunderground v.1.15,2013-04-15 04:03:00,
2013-04-14 23:05:00,72.6,64.2,29.58,SE,144,8.0,13.0,75,0.00,,,0.00,0,Wunderground v.1.15,2013-04-15 04:05:00,
2013-04-14 23:10:00,72.5,64.1,29.58,SE,132,8.0,13.0,75,0.00,,,0.00,0,Wunderground v.1.15,2013-04-15 04:10:00,
2013-04-14 23:11:00,72.5,64.1,29.58,SE,140,8.0,10.0,75,0.00,,,0.00,0,Wunderground v.1.15,2013-04-15 04:11:00,
2013-04-14 23:13:00,72.5,64.1,29.58,SE,137,8.0,10.0,75,0.00,,,0.00,0,Wunderground v.1.15,2013-04-15 04:13:00,
2013-04-14 23:15:00,72.4,64.0,29.58,SSE,152,8.0,10.0,75,0.00,,,0.00,0,Wunderground v.1.15,2013-04-15 04:15:00,
2013-04-14 23:17:00,72.4,64.0,29.58,SSE,150,8.0,10.0,75,0.00,,,0.00,0,Wunderground v.1.15,2013-04-15 04:17:00,
2013-04-14 23:18:00,72.4,64.0,29.58,SE,133,8.0,11.0,75,0.00,,,0.00,0,Wunderground v.1.15,2013-04-15 04:18:00,
2013-04-14 23:20:00,72.4,64.0,29.58,SE,138,8.0,11.0,75,0.00,,,0.00,0,Wunderground v.1.15,2013-04-15 04:20:00,
2013-04-14 23:23:00,72.4,64.0,29.58,SE,136,8.0,8.0,75,0.00,,,0.00,0,Wunderground v.1.15,2013-04-15 04:23:00,
2013-04-14 23:24:00,72.3,63.9,29.58,SSE,154,8.0,12.0,75,0.00,,,0.00,0,Wunderground v.1.15,2013-04-15 04:24:00,
2013-04-14 23:27:00,72.3,63.9,29.58,SE,128,9.0,12.0,75,0.00,,,0.00,0,Wunderground v.1.15,2013-04-15 04:27:00,
2013-04-14 23:29:00,72.3,63.9,29.58,SSE,153,8.0,13.0,75,0.00,,,0.00,0,Wunderground v.1.15,2013-04-15 04:29:00,
2013-04-14 23:33:00,72.3,63.9,29.58,SE,132,9.0,10.0,75,0.00,,,0.00,0,Wunderground v.1.15,2013-04-15 04:33:00,
2013-04-14 23:34:00,72.3,63.9,29.58,SE,136,9.0,13.0,75,0.00,,,0.00,0,Wunderground v.1.15,2013-04-15 04:34:00,
2013-04-14 23:35:00,72.3,64.3,29.58,SE,128,9.0,13.0,76,0.00,,,0.00,0,Wunderground v.1.15,2013-04-15 04:35:00,
2013-04-14 23:38:00,72.4,64.0,29.58,SSE,155,10.0,13.0,75,0.00,,,0.00,0,Wunderground v.1.15,2013-04-15 04:38:00,
2013-04-14 23:42:00,72.3,63.9,29.58,ESE,112,10.0,17.0,75,0.00,,,0.00,0,Wunderground v.1.15,2013-04-15 04:42:00,
2013-04-14 23:43:00,72.3,64.3,29.58,SE,146,10.0,17.0,76,0.00,,,0.00,0,Wunderground v.1.15,2013-04-15 04:43:00,
2013-04-14 23:44:00,72.3,63.9,29.58,SSE,157,10.0,17.0,75,0.00,,,0.00,0,Wunderground v.1.15,2013-04-15 04:44:00,
2013-04-14 23:46:00,72.2,64.2,29.58,SE,131,9.0,17.0,76,0.00,,,0.00,0,Wunderground v.1.15,2013-04-15 04:46:00,
2013-04-14 23:47:00,72.2,64.2,29.58,ESE,122,9.0,17.0,76,0.00,,,0.00,0,Wunderground v.1.15,2013-04-15 04:47:00,
2013-04-14 23:49:00,72.2,64.2,29.58,SE,146,9.0,17.0,76,0.00,,,0.00,0,Wunderground v.1.15,2013-04-15 04:49:00,
2013-04-14 23:53:00,72.0,64.0,29.58,SSE,147,8.0,9.0,76,0.00,,,0.00,0,Wunderground v.1.15,2013-04-15 04:53:00,
2013-04-14 23:54:00,72.0,64.0,29.58,SSE,150,8.0,9.0,76,0.00,,,0.00,0,Wunderground v.1.15,2013-04-15 04:54:00,
2013-04-14 23:58:00,71.8,63.8,29.58,SSE,157,8.0,14.0,76,0.00,,,0.00,0,Wunderground v.1.15,2013-04-15 04:58:00,
2013-04-14 23:59:00,71.8,64.2,29.57,SE,128,9.0,14.0,77,0.00,,,0.00,0,Wunderground v.1.15,2013-04-15 04:59:00,